<?xml version="1.0" encoding="UTF-8" standalone="no" ?>
<gpx xmlns="http://www.topografix.com/GPX/1/1" xmlns:xsi="http://www.w3.org/2001/XMLSchema-instance" xsi:schemaLocation="http://www.topografix.com/GPX/1/1 http://www.topografix.com/GPX/1/1/gpx.xsd" version="1.1" creator="VisuGPX - https://www.visugpx.com">
  <metadata>
    <name>FONTAINEBLEAU BARBIZON</name>
    <desc><![CDATA[FAIT]]></desc>
  </metadata>
  <trk>
    <name><![CDATA[FONTAINEBLEAU BARBIZON-18768387]]></name>
    <trkseg>
      <trkpt lat="48.40561" lon="2.70155">
        <ele>85</ele>
        <time>2024-05-05T09:35:59Z</time>
      </trkpt>
      <trkpt lat="48.40577" lon="2.70162">
        <ele>85</ele>
        <time>2024-05-05T09:36:21Z</time>
      </trkpt>
      <trkpt lat="48.40605" lon="2.702">
        <ele>84</ele>
        <time>2024-05-05T09:37:12Z</time>
      </trkpt>
      <trkpt lat="48.40678" lon="2.70283">
        <ele>84</ele>
        <time>2024-05-05T09:39:14Z</time>
      </trkpt>
      <trkpt lat="48.40722" lon="2.70321">
        <ele>84</ele>
        <time>2024-05-05T09:40:21Z</time>
      </trkpt>
      <trkpt lat="48.40726" lon="2.70342">
        <ele>84</ele>
        <time>2024-05-05T09:40:41Z</time>
      </trkpt>
      <trkpt lat="48.40758" lon="2.70347">
        <ele>84</ele>
        <time>2024-05-05T09:41:24Z</time>
      </trkpt>
      <trkpt lat="48.40798" lon="2.7037">
        <ele>83</ele>
        <time>2024-05-05T09:42:21Z</time>
      </trkpt>
      <trkpt lat="48.40833" lon="2.7038">
        <ele>83</ele>
        <time>2024-05-05T09:43:08Z</time>
      </trkpt>
      <trkpt lat="48.40843" lon="2.70367">
        <ele>84</ele>
        <time>2024-05-05T09:43:26Z</time>
      </trkpt>
      <trkpt lat="48.40845" lon="2.70334">
        <ele>84</ele>
        <time>2024-05-05T09:43:55Z</time>
      </trkpt>
      <trkpt lat="48.40875" lon="2.70247">
        <ele>83</ele>
        <time>2024-05-05T09:45:22Z</time>
      </trkpt>
      <trkpt lat="48.4091" lon="2.70191">
        <ele>84</ele>
        <time>2024-05-05T09:46:30Z</time>
      </trkpt>
      <trkpt lat="48.4091" lon="2.70171">
        <ele>84</ele>
        <time>2024-05-05T09:46:48Z</time>
      </trkpt>
      <trkpt lat="48.4093" lon="2.70146">
        <ele>84</ele>
        <time>2024-05-05T09:47:23Z</time>
      </trkpt>
      <trkpt lat="48.40948" lon="2.70089">
        <ele>85</ele>
        <time>2024-05-05T09:48:18Z</time>
      </trkpt>
      <trkpt lat="48.40966" lon="2.70059">
        <ele>85</ele>
        <time>2024-05-05T09:48:54Z</time>
      </trkpt>
      <trkpt lat="48.40975" lon="2.70031">
        <ele>85</ele>
        <time>2024-05-05T09:49:22Z</time>
      </trkpt>
      <trkpt lat="48.40998" lon="2.69992">
        <ele>85</ele>
        <time>2024-05-05T09:50:08Z</time>
      </trkpt>
      <trkpt lat="48.4101" lon="2.69982">
        <ele>86</ele>
        <time>2024-05-05T09:50:26Z</time>
      </trkpt>
      <trkpt lat="48.4101" lon="2.69957">
        <ele>86</ele>
        <time>2024-05-05T09:50:49Z</time>
      </trkpt>
      <trkpt lat="48.41022" lon="2.69949">
        <ele>86</ele>
        <time>2024-05-05T09:51:06Z</time>
      </trkpt>
      <trkpt lat="48.41033" lon="2.69949">
        <ele>86</ele>
        <time>2024-05-05T09:51:21Z</time>
      </trkpt>
      <trkpt lat="48.41037" lon="2.69943">
        <ele>87</ele>
        <time>2024-05-05T09:51:28Z</time>
      </trkpt>
      <trkpt lat="48.4105" lon="2.69937">
        <ele>87</ele>
        <time>2024-05-05T09:51:46Z</time>
      </trkpt>
      <trkpt lat="48.41066" lon="2.6992">
        <ele>87</ele>
        <time>2024-05-05T09:52:13Z</time>
      </trkpt>
      <trkpt lat="48.41063" lon="2.69912">
        <ele>87</ele>
        <time>2024-05-05T09:52:21Z</time>
      </trkpt>
      <trkpt lat="48.41069" lon="2.69908">
        <ele>87</ele>
        <time>2024-05-05T09:52:29Z</time>
      </trkpt>
      <trkpt lat="48.41073" lon="2.69898">
        <ele>87</ele>
        <time>2024-05-05T09:52:40Z</time>
      </trkpt>
      <trkpt lat="48.41095" lon="2.69902">
        <ele>87</ele>
        <time>2024-05-05T09:53:09Z</time>
      </trkpt>
      <trkpt lat="48.41127" lon="2.69884">
        <ele>87</ele>
        <time>2024-05-05T09:53:55Z</time>
      </trkpt>
      <trkpt lat="48.41149" lon="2.69859">
        <ele>88</ele>
        <time>2024-05-05T09:54:32Z</time>
      </trkpt>
      <trkpt lat="48.41184" lon="2.69838">
        <ele>88</ele>
        <time>2024-05-05T09:55:22Z</time>
      </trkpt>
      <trkpt lat="48.41238" lon="2.69796">
        <ele>90</ele>
        <time>2024-05-05T09:56:43Z</time>
      </trkpt>
      <trkpt lat="48.41244" lon="2.69795">
        <ele>90</ele>
        <time>2024-05-05T09:56:51Z</time>
      </trkpt>
      <trkpt lat="48.41246" lon="2.69781">
        <ele>91</ele>
        <time>2024-05-05T09:57:04Z</time>
      </trkpt>
      <trkpt lat="48.41252" lon="2.69777">
        <ele>91</ele>
        <time>2024-05-05T09:57:13Z</time>
      </trkpt>
      <trkpt lat="48.41313" lon="2.69768">
        <ele>95</ele>
        <time>2024-05-05T09:58:34Z</time>
      </trkpt>
      <trkpt lat="48.41316" lon="2.69746">
        <ele>96</ele>
        <time>2024-05-05T09:58:54Z</time>
      </trkpt>
      <trkpt lat="48.41337" lon="2.69707">
        <ele>98</ele>
        <time>2024-05-05T09:59:39Z</time>
      </trkpt>
      <trkpt lat="48.41322" lon="2.69721">
        <ele>97</ele>
        <time>2024-05-05T10:00:02Z</time>
      </trkpt>
      <trkpt lat="48.41313" lon="2.69748">
        <ele>96</ele>
        <time>2024-05-05T10:00:29Z</time>
      </trkpt>
      <trkpt lat="48.41304" lon="2.69751">
        <ele>95</ele>
        <time>2024-05-05T10:00:41Z</time>
      </trkpt>
      <trkpt lat="48.41288" lon="2.69718">
        <ele>94</ele>
        <time>2024-05-05T10:01:18Z</time>
      </trkpt>
      <trkpt lat="48.41286" lon="2.697">
        <ele>94</ele>
        <time>2024-05-05T10:01:34Z</time>
      </trkpt>
      <trkpt lat="48.4126" lon="2.69634">
        <ele>93</ele>
        <time>2024-05-05T10:02:42Z</time>
      </trkpt>
      <trkpt lat="48.41233" lon="2.69548">
        <ele>94</ele>
        <time>2024-05-05T10:04:06Z</time>
      </trkpt>
      <trkpt lat="48.4121" lon="2.695">
        <ele>96</ele>
        <time>2024-05-05T10:04:58Z</time>
      </trkpt>
      <trkpt lat="48.4119" lon="2.69444">
        <ele>97</ele>
        <time>2024-05-05T10:05:55Z</time>
      </trkpt>
      <trkpt lat="48.41173" lon="2.69413">
        <ele>97</ele>
        <time>2024-05-05T10:06:30Z</time>
      </trkpt>
      <trkpt lat="48.41167" lon="2.69385">
        <ele>99</ele>
        <time>2024-05-05T10:06:56Z</time>
      </trkpt>
      <trkpt lat="48.41195" lon="2.69339">
        <ele>102</ele>
        <time>2024-05-05T10:07:52Z</time>
      </trkpt>
      <trkpt lat="48.41213" lon="2.69291">
        <ele>105</ele>
        <time>2024-05-05T10:08:41Z</time>
      </trkpt>
      <trkpt lat="48.41254" lon="2.69231">
        <ele>110</ele>
        <time>2024-05-05T10:09:57Z</time>
      </trkpt>
      <trkpt lat="48.41261" lon="2.69215">
        <ele>112</ele>
        <time>2024-05-05T10:10:14Z</time>
      </trkpt>
      <trkpt lat="48.41271" lon="2.69207">
        <ele>114</ele>
        <time>2024-05-05T10:10:29Z</time>
      </trkpt>
      <trkpt lat="48.41269" lon="2.6921">
        <ele>113</ele>
        <time>2024-05-05T10:10:33Z</time>
      </trkpt>
      <trkpt lat="48.4131" lon="2.69055">
        <ele>123</ele>
        <time>2024-05-05T10:13:00Z</time>
      </trkpt>
      <trkpt lat="48.41312" lon="2.69036">
        <ele>123</ele>
        <time>2024-05-05T10:13:17Z</time>
      </trkpt>
      <trkpt lat="48.41301" lon="2.68994">
        <ele>122</ele>
        <time>2024-05-05T10:13:57Z</time>
      </trkpt>
      <trkpt lat="48.4131" lon="2.68953">
        <ele>125</ele>
        <time>2024-05-05T10:14:36Z</time>
      </trkpt>
      <trkpt lat="48.41318" lon="2.68941">
        <ele>127</ele>
        <time>2024-05-05T10:14:51Z</time>
      </trkpt>
      <trkpt lat="48.41332" lon="2.6893">
        <ele>129</ele>
        <time>2024-05-05T10:15:12Z</time>
      </trkpt>
      <trkpt lat="48.41351" lon="2.68902">
        <ele>131</ele>
        <time>2024-05-05T10:15:47Z</time>
      </trkpt>
      <trkpt lat="48.41366" lon="2.68862">
        <ele>132</ele>
        <time>2024-05-05T10:16:28Z</time>
      </trkpt>
      <trkpt lat="48.4138" lon="2.68805">
        <ele>134</ele>
        <time>2024-05-05T10:17:22Z</time>
      </trkpt>
      <trkpt lat="48.41385" lon="2.68749">
        <ele>137</ele>
        <time>2024-05-05T10:18:12Z</time>
      </trkpt>
      <trkpt lat="48.41399" lon="2.68727">
        <ele>138</ele>
        <time>2024-05-05T10:18:39Z</time>
      </trkpt>
      <trkpt lat="48.41418" lon="2.68684">
        <ele>141</ele>
        <time>2024-05-05T10:19:25Z</time>
      </trkpt>
      <trkpt lat="48.41457" lon="2.68644">
        <ele>142</ele>
        <time>2024-05-05T10:20:28Z</time>
      </trkpt>
      <trkpt lat="48.41472" lon="2.68618">
        <ele>143</ele>
        <time>2024-05-05T10:20:58Z</time>
      </trkpt>
      <trkpt lat="48.41497" lon="2.68599">
        <ele>143</ele>
        <time>2024-05-05T10:21:35Z</time>
      </trkpt>
      <trkpt lat="48.41505" lon="2.68588">
        <ele>143</ele>
        <time>2024-05-05T10:21:50Z</time>
      </trkpt>
      <trkpt lat="48.41503" lon="2.68564">
        <ele>144</ele>
        <time>2024-05-05T10:22:11Z</time>
      </trkpt>
      <trkpt lat="48.41493" lon="2.68556">
        <ele>144</ele>
        <time>2024-05-05T10:22:26Z</time>
      </trkpt>
      <trkpt lat="48.41494" lon="2.68562">
        <ele>144</ele>
        <time>2024-05-05T10:22:32Z</time>
      </trkpt>
      <trkpt lat="48.41503" lon="2.68563">
        <ele>144</ele>
        <time>2024-05-05T10:22:44Z</time>
      </trkpt>
      <trkpt lat="48.41518" lon="2.68528">
        <ele>144</ele>
        <time>2024-05-05T10:23:21Z</time>
      </trkpt>
      <trkpt lat="48.41525" lon="2.68467">
        <ele>145</ele>
        <time>2024-05-05T10:24:16Z</time>
      </trkpt>
      <trkpt lat="48.41538" lon="2.68442">
        <ele>145</ele>
        <time>2024-05-05T10:24:44Z</time>
      </trkpt>
      <trkpt lat="48.41547" lon="2.68392">
        <ele>145</ele>
        <time>2024-05-05T10:25:30Z</time>
      </trkpt>
      <trkpt lat="48.41571" lon="2.6831">
        <ele>144</ele>
        <time>2024-05-05T10:26:49Z</time>
      </trkpt>
      <trkpt lat="48.41588" lon="2.68232">
        <ele>145</ele>
        <time>2024-05-05T10:28:02Z</time>
      </trkpt>
      <trkpt lat="48.41591" lon="2.68201">
        <ele>146</ele>
        <time>2024-05-05T10:28:30Z</time>
      </trkpt>
      <trkpt lat="48.41611" lon="2.68143">
        <ele>148</ele>
        <time>2024-05-05T10:29:27Z</time>
      </trkpt>
      <trkpt lat="48.41636" lon="2.68052">
        <ele>148</ele>
        <time>2024-05-05T10:30:55Z</time>
      </trkpt>
      <trkpt lat="48.41637" lon="2.68033">
        <ele>148</ele>
        <time>2024-05-05T10:31:12Z</time>
      </trkpt>
      <trkpt lat="48.41686" lon="2.67867">
        <ele>144</ele>
        <time>2024-05-05T10:33:52Z</time>
      </trkpt>
      <trkpt lat="48.41688" lon="2.67834">
        <ele>143</ele>
        <time>2024-05-05T10:34:22Z</time>
      </trkpt>
      <trkpt lat="48.41703" lon="2.67771">
        <ele>142</ele>
        <time>2024-05-05T10:35:21Z</time>
      </trkpt>
      <trkpt lat="48.4173" lon="2.67684">
        <ele>143</ele>
        <time>2024-05-05T10:36:46Z</time>
      </trkpt>
      <trkpt lat="48.4174" lon="2.67665">
        <ele>144</ele>
        <time>2024-05-05T10:37:08Z</time>
      </trkpt>
      <trkpt lat="48.41749" lon="2.67621">
        <ele>145</ele>
        <time>2024-05-05T10:37:48Z</time>
      </trkpt>
      <trkpt lat="48.41756" lon="2.67526">
        <ele>145</ele>
        <time>2024-05-05T10:39:13Z</time>
      </trkpt>
      <trkpt lat="48.41771" lon="2.67504">
        <ele>145</ele>
        <time>2024-05-05T10:39:41Z</time>
      </trkpt>
      <trkpt lat="48.41787" lon="2.67429">
        <ele>145</ele>
        <time>2024-05-05T10:40:51Z</time>
      </trkpt>
      <trkpt lat="48.41815" lon="2.67347">
        <ele>141</ele>
        <time>2024-05-05T10:42:12Z</time>
      </trkpt>
      <trkpt lat="48.41816" lon="2.67337">
        <ele>141</ele>
        <time>2024-05-05T10:42:21Z</time>
      </trkpt>
      <trkpt lat="48.41808" lon="2.67323">
        <ele>141</ele>
        <time>2024-05-05T10:42:38Z</time>
      </trkpt>
      <trkpt lat="48.41826" lon="2.67285">
        <ele>139</ele>
        <time>2024-05-05T10:43:19Z</time>
      </trkpt>
      <trkpt lat="48.41838" lon="2.67196">
        <ele>137</ele>
        <time>2024-05-05T10:44:40Z</time>
      </trkpt>
      <trkpt lat="48.41861" lon="2.67102">
        <ele>134</ele>
        <time>2024-05-05T10:46:08Z</time>
      </trkpt>
      <trkpt lat="48.41865" lon="2.6703">
        <ele>131</ele>
        <time>2024-05-05T10:47:12Z</time>
      </trkpt>
      <trkpt lat="48.41896" lon="2.66877">
        <ele>132</ele>
        <time>2024-05-05T10:49:34Z</time>
      </trkpt>
      <trkpt lat="48.41899" lon="2.66834">
        <ele>132</ele>
        <time>2024-05-05T10:50:12Z</time>
      </trkpt>
      <trkpt lat="48.41911" lon="2.66779">
        <ele>133</ele>
        <time>2024-05-05T10:51:04Z</time>
      </trkpt>
      <trkpt lat="48.41912" lon="2.66747">
        <ele>133</ele>
        <time>2024-05-05T10:51:32Z</time>
      </trkpt>
      <trkpt lat="48.41954" lon="2.66523">
        <ele>136</ele>
        <time>2024-05-05T10:54:58Z</time>
      </trkpt>
      <trkpt lat="48.41955" lon="2.66481">
        <ele>137</ele>
        <time>2024-05-05T10:55:35Z</time>
      </trkpt>
      <trkpt lat="48.41969" lon="2.66438">
        <ele>139</ele>
        <time>2024-05-05T10:56:18Z</time>
      </trkpt>
      <trkpt lat="48.41984" lon="2.66321">
        <ele>141</ele>
        <time>2024-05-05T10:58:03Z</time>
      </trkpt>
      <trkpt lat="48.41993" lon="2.66287">
        <ele>142</ele>
        <time>2024-05-05T10:58:36Z</time>
      </trkpt>
      <trkpt lat="48.41998" lon="2.66243">
        <ele>142</ele>
        <time>2024-05-05T10:59:15Z</time>
      </trkpt>
      <trkpt lat="48.41996" lon="2.66194">
        <ele>141</ele>
        <time>2024-05-05T10:59:59Z</time>
      </trkpt>
      <trkpt lat="48.42006" lon="2.66144">
        <ele>141</ele>
        <time>2024-05-05T11:00:45Z</time>
      </trkpt>
      <trkpt lat="48.42014" lon="2.66129">
        <ele>141</ele>
        <time>2024-05-05T11:01:02Z</time>
      </trkpt>
      <trkpt lat="48.42018" lon="2.66082">
        <ele>141</ele>
        <time>2024-05-05T11:01:44Z</time>
      </trkpt>
      <trkpt lat="48.42036" lon="2.66012">
        <ele>145</ele>
        <time>2024-05-05T11:02:50Z</time>
      </trkpt>
      <trkpt lat="48.42039" lon="2.65951">
        <ele>146</ele>
        <time>2024-05-05T11:03:45Z</time>
      </trkpt>
      <trkpt lat="48.42051" lon="2.65876">
        <ele>147</ele>
        <time>2024-05-05T11:04:53Z</time>
      </trkpt>
      <trkpt lat="48.42076" lon="2.65781">
        <ele>147</ele>
        <time>2024-05-05T11:06:23Z</time>
      </trkpt>
      <trkpt lat="48.42075" lon="2.65738">
        <ele>145</ele>
        <time>2024-05-05T11:07:02Z</time>
      </trkpt>
      <trkpt lat="48.4209" lon="2.65676">
        <ele>143</ele>
        <time>2024-05-05T11:08:00Z</time>
      </trkpt>
      <trkpt lat="48.42109" lon="2.65561">
        <ele>143</ele>
        <time>2024-05-05T11:09:45Z</time>
      </trkpt>
      <trkpt lat="48.42109" lon="2.65518">
        <ele>143</ele>
        <time>2024-05-05T11:10:23Z</time>
      </trkpt>
      <trkpt lat="48.42122" lon="2.6548">
        <ele>143</ele>
        <time>2024-05-05T11:11:01Z</time>
      </trkpt>
      <trkpt lat="48.42124" lon="2.65445">
        <ele>143</ele>
        <time>2024-05-05T11:11:32Z</time>
      </trkpt>
      <trkpt lat="48.42142" lon="2.65361">
        <ele>141</ele>
        <time>2024-05-05T11:12:50Z</time>
      </trkpt>
      <trkpt lat="48.42149" lon="2.65303">
        <ele>139</ele>
        <time>2024-05-05T11:13:42Z</time>
      </trkpt>
      <trkpt lat="48.42167" lon="2.65256">
        <ele>138</ele>
        <time>2024-05-05T11:14:30Z</time>
      </trkpt>
      <trkpt lat="48.42131" lon="2.65172">
        <ele>139</ele>
        <time>2024-05-05T11:15:59Z</time>
      </trkpt>
      <trkpt lat="48.4213" lon="2.65124">
        <ele>139</ele>
        <time>2024-05-05T11:16:41Z</time>
      </trkpt>
      <trkpt lat="48.42196" lon="2.65056">
        <ele>140</ele>
        <time>2024-05-05T11:18:28Z</time>
      </trkpt>
      <trkpt lat="48.42205" lon="2.6501">
        <ele>140</ele>
        <time>2024-05-05T11:19:11Z</time>
      </trkpt>
      <trkpt lat="48.42222" lon="2.64961">
        <ele>140</ele>
        <time>2024-05-05T11:20:00Z</time>
      </trkpt>
      <trkpt lat="48.42255" lon="2.64911">
        <ele>140</ele>
        <time>2024-05-05T11:21:02Z</time>
      </trkpt>
      <trkpt lat="48.42266" lon="2.64903">
        <ele>140</ele>
        <time>2024-05-05T11:21:18Z</time>
      </trkpt>
      <trkpt lat="48.42267" lon="2.64896">
        <ele>140</ele>
        <time>2024-05-05T11:21:25Z</time>
      </trkpt>
      <trkpt lat="48.42279" lon="2.64884">
        <ele>140</ele>
        <time>2024-05-05T11:21:44Z</time>
      </trkpt>
      <trkpt lat="48.42305" lon="2.64864">
        <ele>141</ele>
        <time>2024-05-05T11:22:23Z</time>
      </trkpt>
      <trkpt lat="48.4233" lon="2.64866">
        <ele>141</ele>
        <time>2024-05-05T11:22:56Z</time>
      </trkpt>
      <trkpt lat="48.42338" lon="2.64859">
        <ele>141</ele>
        <time>2024-05-05T11:23:09Z</time>
      </trkpt>
      <trkpt lat="48.42351" lon="2.64857">
        <ele>141</ele>
        <time>2024-05-05T11:23:26Z</time>
      </trkpt>
      <trkpt lat="48.42369" lon="2.64842">
        <ele>141</ele>
        <time>2024-05-05T11:23:54Z</time>
      </trkpt>
      <trkpt lat="48.42403" lon="2.64856">
        <ele>141</ele>
        <time>2024-05-05T11:24:41Z</time>
      </trkpt>
      <trkpt lat="48.42455" lon="2.64847">
        <ele>138</ele>
        <time>2024-05-05T11:25:50Z</time>
      </trkpt>
      <trkpt lat="48.42465" lon="2.64832">
        <ele>137</ele>
        <time>2024-05-05T11:26:09Z</time>
      </trkpt>
      <trkpt lat="48.42489" lon="2.64762">
        <ele>133</ele>
        <time>2024-05-05T11:27:19Z</time>
      </trkpt>
      <trkpt lat="48.42497" lon="2.64757">
        <ele>132</ele>
        <time>2024-05-05T11:27:31Z</time>
      </trkpt>
      <trkpt lat="48.42509" lon="2.6476">
        <ele>131</ele>
        <time>2024-05-05T11:27:47Z</time>
      </trkpt>
      <trkpt lat="48.42516" lon="2.64753">
        <ele>130</ele>
        <time>2024-05-05T11:27:58Z</time>
      </trkpt>
      <trkpt lat="48.42525" lon="2.64756">
        <ele>130</ele>
        <time>2024-05-05T11:28:10Z</time>
      </trkpt>
      <trkpt lat="48.42536" lon="2.64751">
        <ele>129</ele>
        <time>2024-05-05T11:28:26Z</time>
      </trkpt>
      <trkpt lat="48.42544" lon="2.6476">
        <ele>129</ele>
        <time>2024-05-05T11:28:39Z</time>
      </trkpt>
      <trkpt lat="48.42562" lon="2.64751">
        <ele>128</ele>
        <time>2024-05-05T11:29:04Z</time>
      </trkpt>
      <trkpt lat="48.42577" lon="2.64753">
        <ele>127</ele>
        <time>2024-05-05T11:29:24Z</time>
      </trkpt>
      <trkpt lat="48.42581" lon="2.64758">
        <ele>127</ele>
        <time>2024-05-05T11:29:31Z</time>
      </trkpt>
      <trkpt lat="48.42578" lon="2.64754">
        <ele>127</ele>
        <time>2024-05-05T11:29:37Z</time>
      </trkpt>
      <trkpt lat="48.42584" lon="2.6475">
        <ele>127</ele>
        <time>2024-05-05T11:29:45Z</time>
      </trkpt>
      <trkpt lat="48.4258" lon="2.64754">
        <ele>127</ele>
        <time>2024-05-05T11:29:52Z</time>
      </trkpt>
      <trkpt lat="48.42583" lon="2.64761">
        <ele>128</ele>
        <time>2024-05-05T11:29:59Z</time>
      </trkpt>
      <trkpt lat="48.42583" lon="2.64747">
        <ele>127</ele>
        <time>2024-05-05T11:30:12Z</time>
      </trkpt>
      <trkpt lat="48.42615" lon="2.64711">
        <ele>129</ele>
        <time>2024-05-05T11:31:05Z</time>
      </trkpt>
      <trkpt lat="48.42641" lon="2.64692">
        <ele>132</ele>
        <time>2024-05-05T11:31:43Z</time>
      </trkpt>
      <trkpt lat="48.42669" lon="2.64681">
        <ele>135</ele>
        <time>2024-05-05T11:32:22Z</time>
      </trkpt>
      <trkpt lat="48.42708" lon="2.64641">
        <ele>138</ele>
        <time>2024-05-05T11:33:25Z</time>
      </trkpt>
      <trkpt lat="48.42765" lon="2.64598">
        <ele>141</ele>
        <time>2024-05-05T11:34:50Z</time>
      </trkpt>
      <trkpt lat="48.42789" lon="2.64529">
        <ele>141</ele>
        <time>2024-05-05T11:35:59Z</time>
      </trkpt>
      <trkpt lat="48.42813" lon="2.64489">
        <ele>141</ele>
        <time>2024-05-05T11:36:47Z</time>
      </trkpt>
      <trkpt lat="48.42877" lon="2.6434">
        <ele>137</ele>
        <time>2024-05-05T11:39:24Z</time>
      </trkpt>
      <trkpt lat="48.42895" lon="2.64313">
        <ele>136</ele>
        <time>2024-05-05T11:39:58Z</time>
      </trkpt>
      <trkpt lat="48.42901" lon="2.6429">
        <ele>136</ele>
        <time>2024-05-05T11:40:20Z</time>
      </trkpt>
      <trkpt lat="48.42901" lon="2.64264">
        <ele>137</ele>
        <time>2024-05-05T11:40:43Z</time>
      </trkpt>
      <trkpt lat="48.42886" lon="2.64223">
        <ele>139</ele>
        <time>2024-05-05T11:41:24Z</time>
      </trkpt>
      <trkpt lat="48.42873" lon="2.64159">
        <ele>142</ele>
        <time>2024-05-05T11:42:24Z</time>
      </trkpt>
      <trkpt lat="48.42859" lon="2.64133">
        <ele>144</ele>
        <time>2024-05-05T11:42:53Z</time>
      </trkpt>
      <trkpt lat="48.42859" lon="2.64119">
        <ele>145</ele>
        <time>2024-05-05T11:43:06Z</time>
      </trkpt>
      <trkpt lat="48.42851" lon="2.6409">
        <ele>147</ele>
        <time>2024-05-05T11:43:33Z</time>
      </trkpt>
      <trkpt lat="48.42837" lon="2.64075">
        <ele>148</ele>
        <time>2024-05-05T11:43:56Z</time>
      </trkpt>
      <trkpt lat="48.42829" lon="2.64047">
        <ele>147</ele>
        <time>2024-05-05T11:44:23Z</time>
      </trkpt>
      <trkpt lat="48.42816" lon="2.64028">
        <ele>146</ele>
        <time>2024-05-05T11:44:47Z</time>
      </trkpt>
      <trkpt lat="48.42806" lon="2.63998">
        <ele>145</ele>
        <time>2024-05-05T11:45:17Z</time>
      </trkpt>
      <trkpt lat="48.42785" lon="2.63963">
        <ele>145</ele>
        <time>2024-05-05T11:45:59Z</time>
      </trkpt>
      <trkpt lat="48.42771" lon="2.63926">
        <ele>144</ele>
        <time>2024-05-05T11:46:37Z</time>
      </trkpt>
      <trkpt lat="48.42756" lon="2.63903">
        <ele>144</ele>
        <time>2024-05-05T11:47:05Z</time>
      </trkpt>
      <trkpt lat="48.42741" lon="2.63861">
        <ele>145</ele>
        <time>2024-05-05T11:47:47Z</time>
      </trkpt>
      <trkpt lat="48.42693" lon="2.63774">
        <ele>144</ele>
        <time>2024-05-05T11:49:28Z</time>
      </trkpt>
      <trkpt lat="48.42701" lon="2.63731">
        <ele>144</ele>
        <time>2024-05-05T11:50:07Z</time>
      </trkpt>
      <trkpt lat="48.42716" lon="2.6359">
        <ele>144</ele>
        <time>2024-05-05T11:52:14Z</time>
      </trkpt>
      <trkpt lat="48.42723" lon="2.63562">
        <ele>144</ele>
        <time>2024-05-05T11:52:40Z</time>
      </trkpt>
      <trkpt lat="48.42725" lon="2.63516">
        <ele>144</ele>
        <time>2024-05-05T11:53:21Z</time>
      </trkpt>
      <trkpt lat="48.42736" lon="2.63441">
        <ele>144</ele>
        <time>2024-05-05T11:54:29Z</time>
      </trkpt>
      <trkpt lat="48.42735" lon="2.63421">
        <ele>143</ele>
        <time>2024-05-05T11:54:47Z</time>
      </trkpt>
      <trkpt lat="48.42745" lon="2.63375">
        <ele>144</ele>
        <time>2024-05-05T11:55:30Z</time>
      </trkpt>
      <trkpt lat="48.42747" lon="2.63331">
        <ele>145</ele>
        <time>2024-05-05T11:56:09Z</time>
      </trkpt>
      <trkpt lat="48.42764" lon="2.63228">
        <ele>143</ele>
        <time>2024-05-05T11:57:43Z</time>
      </trkpt>
      <trkpt lat="48.42765" lon="2.63182">
        <ele>143</ele>
        <time>2024-05-05T11:58:23Z</time>
      </trkpt>
      <trkpt lat="48.42777" lon="2.63106">
        <ele>143</ele>
        <time>2024-05-05T11:59:33Z</time>
      </trkpt>
      <trkpt lat="48.42781" lon="2.63043">
        <ele>142</ele>
        <time>2024-05-05T12:00:29Z</time>
      </trkpt>
      <trkpt lat="48.42796" lon="2.62965">
        <ele>141</ele>
        <time>2024-05-05T12:01:41Z</time>
      </trkpt>
      <trkpt lat="48.42806" lon="2.62954">
        <ele>141</ele>
        <time>2024-05-05T12:01:57Z</time>
      </trkpt>
      <trkpt lat="48.42816" lon="2.62957">
        <ele>142</ele>
        <time>2024-05-05T12:02:11Z</time>
      </trkpt>
      <trkpt lat="48.4284" lon="2.62955">
        <ele>142</ele>
        <time>2024-05-05T12:02:43Z</time>
      </trkpt>
      <trkpt lat="48.42855" lon="2.62949">
        <ele>143</ele>
        <time>2024-05-05T12:03:03Z</time>
      </trkpt>
      <trkpt lat="48.42876" lon="2.62949">
        <ele>144</ele>
        <time>2024-05-05T12:03:31Z</time>
      </trkpt>
      <trkpt lat="48.42899" lon="2.62941">
        <ele>144</ele>
        <time>2024-05-05T12:04:03Z</time>
      </trkpt>
      <trkpt lat="48.42922" lon="2.6294">
        <ele>145</ele>
        <time>2024-05-05T12:04:34Z</time>
      </trkpt>
      <trkpt lat="48.42932" lon="2.62935">
        <ele>145</ele>
        <time>2024-05-05T12:04:48Z</time>
      </trkpt>
      <trkpt lat="48.42946" lon="2.62937">
        <ele>145</ele>
        <time>2024-05-05T12:05:07Z</time>
      </trkpt>
      <trkpt lat="48.42964" lon="2.62929">
        <ele>145</ele>
        <time>2024-05-05T12:05:32Z</time>
      </trkpt>
      <trkpt lat="48.42999" lon="2.62924">
        <ele>144</ele>
        <time>2024-05-05T12:06:18Z</time>
      </trkpt>
      <trkpt lat="48.43019" lon="2.62916">
        <ele>143</ele>
        <time>2024-05-05T12:06:46Z</time>
      </trkpt>
      <trkpt lat="48.43055" lon="2.62915">
        <ele>141</ele>
        <time>2024-05-05T12:07:34Z</time>
      </trkpt>
      <trkpt lat="48.43075" lon="2.62931">
        <ele>139</ele>
        <time>2024-05-05T12:08:04Z</time>
      </trkpt>
      <trkpt lat="48.43086" lon="2.62932">
        <ele>138</ele>
        <time>2024-05-05T12:08:19Z</time>
      </trkpt>
      <trkpt lat="48.43099" lon="2.62947">
        <ele>136</ele>
        <time>2024-05-05T12:08:41Z</time>
      </trkpt>
      <trkpt lat="48.43147" lon="2.62986">
        <ele>127</ele>
        <time>2024-05-05T12:09:54Z</time>
      </trkpt>
      <trkpt lat="48.43169" lon="2.63013">
        <ele>123</ele>
        <time>2024-05-05T12:10:32Z</time>
      </trkpt>
      <trkpt lat="48.43184" lon="2.62953">
        <ele>122</ele>
        <time>2024-05-05T12:11:28Z</time>
      </trkpt>
      <trkpt lat="48.43204" lon="2.62895">
        <ele>121</ele>
        <time>2024-05-05T12:12:26Z</time>
      </trkpt>
      <trkpt lat="48.43218" lon="2.62882">
        <ele>119</ele>
        <time>2024-05-05T12:12:48Z</time>
      </trkpt>
      <trkpt lat="48.43236" lon="2.62874">
        <ele>116</ele>
        <time>2024-05-05T12:13:13Z</time>
      </trkpt>
      <trkpt lat="48.43247" lon="2.62849">
        <ele>115</ele>
        <time>2024-05-05T12:13:40Z</time>
      </trkpt>
      <trkpt lat="48.43263" lon="2.62834">
        <ele>113</ele>
        <time>2024-05-05T12:14:05Z</time>
      </trkpt>
      <trkpt lat="48.43292" lon="2.62791">
        <ele>110</ele>
        <time>2024-05-05T12:14:59Z</time>
      </trkpt>
      <trkpt lat="48.43312" lon="2.62772">
        <ele>107</ele>
        <time>2024-05-05T12:15:31Z</time>
      </trkpt>
      <trkpt lat="48.43326" lon="2.62767">
        <ele>105</ele>
        <time>2024-05-05T12:15:50Z</time>
      </trkpt>
      <trkpt lat="48.43341" lon="2.62754">
        <ele>103</ele>
        <time>2024-05-05T12:16:13Z</time>
      </trkpt>
      <trkpt lat="48.43357" lon="2.62749">
        <ele>102</ele>
        <time>2024-05-05T12:16:35Z</time>
      </trkpt>
      <trkpt lat="48.43378" lon="2.62743">
        <ele>100</ele>
        <time>2024-05-05T12:17:03Z</time>
      </trkpt>
      <trkpt lat="48.43407" lon="2.62747">
        <ele>97</ele>
        <time>2024-05-05T12:17:42Z</time>
      </trkpt>
      <trkpt lat="48.4342" lon="2.62736">
        <ele>97</ele>
        <time>2024-05-05T12:18:02Z</time>
      </trkpt>
      <trkpt lat="48.43444" lon="2.62743">
        <ele>96</ele>
        <time>2024-05-05T12:18:35Z</time>
      </trkpt>
      <trkpt lat="48.43475" lon="2.62734">
        <ele>97</ele>
        <time>2024-05-05T12:19:17Z</time>
      </trkpt>
      <trkpt lat="48.43511" lon="2.62697">
        <ele>97</ele>
        <time>2024-05-05T12:20:15Z</time>
      </trkpt>
      <trkpt lat="48.43512" lon="2.62685">
        <ele>97</ele>
        <time>2024-05-05T12:20:26Z</time>
      </trkpt>
      <trkpt lat="48.43523" lon="2.62672">
        <ele>97</ele>
        <time>2024-05-05T12:20:44Z</time>
      </trkpt>
      <trkpt lat="48.43536" lon="2.62666">
        <ele>97</ele>
        <time>2024-05-05T12:21:02Z</time>
      </trkpt>
      <trkpt lat="48.43556" lon="2.62649">
        <ele>98</ele>
        <time>2024-05-05T12:21:33Z</time>
      </trkpt>
      <trkpt lat="48.43572" lon="2.62625">
        <ele>98</ele>
        <time>2024-05-05T12:22:03Z</time>
      </trkpt>
      <trkpt lat="48.43575" lon="2.62612">
        <ele>99</ele>
        <time>2024-05-05T12:22:15Z</time>
      </trkpt>
      <trkpt lat="48.43584" lon="2.62604">
        <ele>99</ele>
        <time>2024-05-05T12:22:29Z</time>
      </trkpt>
      <trkpt lat="48.43581" lon="2.62593">
        <ele>99</ele>
        <time>2024-05-05T12:22:40Z</time>
      </trkpt>
      <trkpt lat="48.43587" lon="2.62584">
        <ele>99</ele>
        <time>2024-05-05T12:22:51Z</time>
      </trkpt>
      <trkpt lat="48.43598" lon="2.62581">
        <ele>99</ele>
        <time>2024-05-05T12:23:06Z</time>
      </trkpt>
      <trkpt lat="48.43603" lon="2.62573">
        <ele>99</ele>
        <time>2024-05-05T12:23:16Z</time>
      </trkpt>
      <trkpt lat="48.43634" lon="2.62592">
        <ele>98</ele>
        <time>2024-05-05T12:24:01Z</time>
      </trkpt>
      <trkpt lat="48.43654" lon="2.62598">
        <ele>98</ele>
        <time>2024-05-05T12:24:28Z</time>
      </trkpt>
      <trkpt lat="48.43657" lon="2.6261">
        <ele>98</ele>
        <time>2024-05-05T12:24:39Z</time>
      </trkpt>
      <trkpt lat="48.43668" lon="2.62622">
        <ele>97</ele>
        <time>2024-05-05T12:24:57Z</time>
      </trkpt>
      <trkpt lat="48.43666" lon="2.62644">
        <ele>97</ele>
        <time>2024-05-05T12:25:17Z</time>
      </trkpt>
      <trkpt lat="48.43688" lon="2.62669">
        <ele>98</ele>
        <time>2024-05-05T12:25:54Z</time>
      </trkpt>
      <trkpt lat="48.43689" lon="2.62692">
        <ele>99</ele>
        <time>2024-05-05T12:26:14Z</time>
      </trkpt>
      <trkpt lat="48.43691" lon="2.62694">
        <ele>99</ele>
        <time>2024-05-05T12:26:17Z</time>
      </trkpt>
      <trkpt lat="48.43702" lon="2.62683">
        <ele>100</ele>
        <time>2024-05-05T12:26:35Z</time>
      </trkpt>
      <trkpt lat="48.43713" lon="2.62682">
        <ele>101</ele>
        <time>2024-05-05T12:26:50Z</time>
      </trkpt>
      <trkpt lat="48.43725" lon="2.62696">
        <ele>102</ele>
        <time>2024-05-05T12:27:10Z</time>
      </trkpt>
      <trkpt lat="48.43731" lon="2.62686">
        <ele>102</ele>
        <time>2024-05-05T12:27:22Z</time>
      </trkpt>
      <trkpt lat="48.43728" lon="2.62686">
        <ele>102</ele>
        <time>2024-05-05T12:27:26Z</time>
      </trkpt>
      <trkpt lat="48.4373" lon="2.62668">
        <ele>101</ele>
        <time>2024-05-05T12:27:42Z</time>
      </trkpt>
      <trkpt lat="48.43722" lon="2.62622">
        <ele>100</ele>
        <time>2024-05-05T12:28:24Z</time>
      </trkpt>
      <trkpt lat="48.43714" lon="2.6261">
        <ele>99</ele>
        <time>2024-05-05T12:28:39Z</time>
      </trkpt>
      <trkpt lat="48.43706" lon="2.62606">
        <ele>99</ele>
        <time>2024-05-05T12:28:50Z</time>
      </trkpt>
      <trkpt lat="48.43701" lon="2.62589">
        <ele>99</ele>
        <time>2024-05-05T12:29:07Z</time>
      </trkpt>
      <trkpt lat="48.43703" lon="2.62577">
        <ele>99</ele>
        <time>2024-05-05T12:29:18Z</time>
      </trkpt>
      <trkpt lat="48.43711" lon="2.62564">
        <ele>99</ele>
        <time>2024-05-05T12:29:33Z</time>
      </trkpt>
      <trkpt lat="48.43706" lon="2.62547">
        <ele>98</ele>
        <time>2024-05-05T12:29:50Z</time>
      </trkpt>
      <trkpt lat="48.43685" lon="2.62516">
        <ele>98</ele>
        <time>2024-05-05T12:30:29Z</time>
      </trkpt>
      <trkpt lat="48.43688" lon="2.6248">
        <ele>98</ele>
        <time>2024-05-05T12:31:01Z</time>
      </trkpt>
      <trkpt lat="48.43708" lon="2.62453">
        <ele>97</ele>
        <time>2024-05-05T12:31:37Z</time>
      </trkpt>
      <trkpt lat="48.43814" lon="2.62409">
        <ele>95</ele>
        <time>2024-05-05T12:34:04Z</time>
      </trkpt>
      <trkpt lat="48.43881" lon="2.62416">
        <ele>95</ele>
        <time>2024-05-05T12:35:33Z</time>
      </trkpt>
      <trkpt lat="48.43944" lon="2.62431">
        <ele>96</ele>
        <time>2024-05-05T12:36:59Z</time>
      </trkpt>
      <trkpt lat="48.43996" lon="2.62432">
        <ele>97</ele>
        <time>2024-05-05T12:38:08Z</time>
      </trkpt>
      <trkpt lat="48.44017" lon="2.62443">
        <ele>96</ele>
        <time>2024-05-05T12:38:38Z</time>
      </trkpt>
      <trkpt lat="48.44028" lon="2.62441">
        <ele>95</ele>
        <time>2024-05-05T12:38:52Z</time>
      </trkpt>
      <trkpt lat="48.44036" lon="2.62444">
        <ele>95</ele>
        <time>2024-05-05T12:39:03Z</time>
      </trkpt>
      <trkpt lat="48.4404" lon="2.62456">
        <ele>94</ele>
        <time>2024-05-05T12:39:15Z</time>
      </trkpt>
      <trkpt lat="48.44041" lon="2.62446">
        <ele>94</ele>
        <time>2024-05-05T12:39:24Z</time>
      </trkpt>
      <trkpt lat="48.44046" lon="2.62442">
        <ele>94</ele>
        <time>2024-05-05T12:39:32Z</time>
      </trkpt>
      <trkpt lat="48.4408" lon="2.62439">
        <ele>92</ele>
        <time>2024-05-05T12:40:17Z</time>
      </trkpt>
      <trkpt lat="48.44088" lon="2.62443">
        <ele>92</ele>
        <time>2024-05-05T12:40:28Z</time>
      </trkpt>
      <trkpt lat="48.44093" lon="2.62439">
        <ele>92</ele>
        <time>2024-05-05T12:40:36Z</time>
      </trkpt>
      <trkpt lat="48.44093" lon="2.62423">
        <ele>92</ele>
        <time>2024-05-05T12:40:50Z</time>
      </trkpt>
      <trkpt lat="48.44113" lon="2.62424">
        <ele>92</ele>
        <time>2024-05-05T12:41:17Z</time>
      </trkpt>
      <trkpt lat="48.4412" lon="2.62404">
        <ele>92</ele>
        <time>2024-05-05T12:41:37Z</time>
      </trkpt>
      <trkpt lat="48.44157" lon="2.6236">
        <ele>93</ele>
        <time>2024-05-05T12:42:40Z</time>
      </trkpt>
      <trkpt lat="48.44164" lon="2.62341">
        <ele>93</ele>
        <time>2024-05-05T12:42:59Z</time>
      </trkpt>
      <trkpt lat="48.44161" lon="2.62333">
        <ele>93</ele>
        <time>2024-05-05T12:43:07Z</time>
      </trkpt>
      <trkpt lat="48.44164" lon="2.62319">
        <ele>93</ele>
        <time>2024-05-05T12:43:20Z</time>
      </trkpt>
      <trkpt lat="48.44193" lon="2.62273">
        <ele>95</ele>
        <time>2024-05-05T12:44:16Z</time>
      </trkpt>
      <trkpt lat="48.44204" lon="2.62262">
        <ele>96</ele>
        <time>2024-05-05T12:44:34Z</time>
      </trkpt>
      <trkpt lat="48.4422" lon="2.62219">
        <ele>96</ele>
        <time>2024-05-05T12:45:18Z</time>
      </trkpt>
      <trkpt lat="48.44247" lon="2.62191">
        <ele>96</ele>
        <time>2024-05-05T12:46:01Z</time>
      </trkpt>
      <trkpt lat="48.44271" lon="2.62133">
        <ele>96</ele>
        <time>2024-05-05T12:47:02Z</time>
      </trkpt>
      <trkpt lat="48.44301" lon="2.62097">
        <ele>96</ele>
        <time>2024-05-05T12:47:53Z</time>
      </trkpt>
      <trkpt lat="48.44305" lon="2.62083">
        <ele>96</ele>
        <time>2024-05-05T12:48:07Z</time>
      </trkpt>
      <trkpt lat="48.4432" lon="2.62058">
        <ele>95</ele>
        <time>2024-05-05T12:48:36Z</time>
      </trkpt>
      <trkpt lat="48.44335" lon="2.62046">
        <ele>95</ele>
        <time>2024-05-05T12:48:59Z</time>
      </trkpt>
      <trkpt lat="48.44342" lon="2.62015">
        <ele>94</ele>
        <time>2024-05-05T12:49:28Z</time>
      </trkpt>
      <trkpt lat="48.44358" lon="2.61983">
        <ele>94</ele>
        <time>2024-05-05T12:50:04Z</time>
      </trkpt>
      <trkpt lat="48.44371" lon="2.61943">
        <ele>94</ele>
        <time>2024-05-05T12:50:43Z</time>
      </trkpt>
      <trkpt lat="48.44401" lon="2.61907">
        <ele>95</ele>
        <time>2024-05-05T12:51:34Z</time>
      </trkpt>
      <trkpt lat="48.44447" lon="2.61829">
        <ele>92</ele>
        <time>2024-05-05T12:53:06Z</time>
      </trkpt>
      <trkpt lat="48.44459" lon="2.6182">
        <ele>91</ele>
        <time>2024-05-05T12:53:24Z</time>
      </trkpt>
      <trkpt lat="48.44469" lon="2.61803">
        <ele>90</ele>
        <time>2024-05-05T12:53:44Z</time>
      </trkpt>
      <trkpt lat="48.44496" lon="2.61725">
        <ele>86</ele>
        <time>2024-05-05T12:55:02Z</time>
      </trkpt>
      <trkpt lat="48.44502" lon="2.61654">
        <ele>87</ele>
        <time>2024-05-05T12:56:06Z</time>
      </trkpt>
      <trkpt lat="48.44501" lon="2.61618">
        <ele>88</ele>
        <time>2024-05-05T12:56:38Z</time>
      </trkpt>
      <trkpt lat="48.44507" lon="2.61584">
        <ele>90</ele>
        <time>2024-05-05T12:57:09Z</time>
      </trkpt>
      <trkpt lat="48.44505" lon="2.61528">
        <ele>92</ele>
        <time>2024-05-05T12:57:58Z</time>
      </trkpt>
      <trkpt lat="48.44565" lon="2.6137">
        <ele>88</ele>
        <time>2024-05-05T13:00:40Z</time>
      </trkpt>
      <trkpt lat="48.44596" lon="2.61314">
        <ele>86</ele>
        <time>2024-05-05T13:01:44Z</time>
      </trkpt>
      <trkpt lat="48.44602" lon="2.61294">
        <ele>86</ele>
        <time>2024-05-05T13:02:04Z</time>
      </trkpt>
      <trkpt lat="48.44607" lon="2.61252">
        <ele>85</ele>
        <time>2024-05-05T13:02:41Z</time>
      </trkpt>
      <trkpt lat="48.44598" lon="2.61235">
        <ele>85</ele>
        <time>2024-05-05T13:03:01Z</time>
      </trkpt>
      <trkpt lat="48.44578" lon="2.61171">
        <ele>86</ele>
        <time>2024-05-05T13:04:03Z</time>
      </trkpt>
      <trkpt lat="48.44569" lon="2.61159">
        <ele>86</ele>
        <time>2024-05-05T13:04:19Z</time>
      </trkpt>
      <trkpt lat="48.44578" lon="2.61162">
        <ele>86</ele>
        <time>2024-05-05T13:04:32Z</time>
      </trkpt>
      <trkpt lat="48.44566" lon="2.61131">
        <ele>86</ele>
        <time>2024-05-05T13:05:03Z</time>
      </trkpt>
      <trkpt lat="48.44547" lon="2.60997">
        <ele>85</ele>
        <time>2024-05-05T13:07:05Z</time>
      </trkpt>
      <trkpt lat="48.44548" lon="2.6095">
        <ele>85</ele>
        <time>2024-05-05T13:07:46Z</time>
      </trkpt>
      <trkpt lat="48.44555" lon="2.60927">
        <ele>85</ele>
        <time>2024-05-05T13:08:09Z</time>
      </trkpt>
      <trkpt lat="48.4456" lon="2.60869">
        <ele>85</ele>
        <time>2024-05-05T13:09:00Z</time>
      </trkpt>
      <trkpt lat="48.44582" lon="2.60751">
        <ele>82</ele>
        <time>2024-05-05T13:10:49Z</time>
      </trkpt>
      <trkpt lat="48.4459" lon="2.60683">
        <ele>82</ele>
        <time>2024-05-05T13:11:50Z</time>
      </trkpt>
      <trkpt lat="48.44572" lon="2.60649">
        <ele>82</ele>
        <time>2024-05-05T13:12:29Z</time>
      </trkpt>
      <trkpt lat="48.44551" lon="2.60625">
        <ele>82</ele>
        <time>2024-05-05T13:13:04Z</time>
      </trkpt>
      <trkpt lat="48.44529" lon="2.60612">
        <ele>82</ele>
        <time>2024-05-05T13:13:35Z</time>
      </trkpt>
      <trkpt lat="48.4453" lon="2.60602">
        <ele>82</ele>
        <time>2024-05-05T13:13:44Z</time>
      </trkpt>
      <trkpt lat="48.44548" lon="2.60572">
        <ele>82</ele>
        <time>2024-05-05T13:14:20Z</time>
      </trkpt>
      <trkpt lat="48.44549" lon="2.60547">
        <ele>82</ele>
        <time>2024-05-05T13:14:42Z</time>
      </trkpt>
      <trkpt lat="48.44554" lon="2.6053">
        <ele>82</ele>
        <time>2024-05-05T13:14:59Z</time>
      </trkpt>
      <trkpt lat="48.44548" lon="2.60498">
        <ele>82</ele>
        <time>2024-05-05T13:15:28Z</time>
      </trkpt>
      <trkpt lat="48.44533" lon="2.6049">
        <ele>81</ele>
        <time>2024-05-05T13:15:49Z</time>
      </trkpt>
      <trkpt lat="48.44539" lon="2.60489">
        <ele>82</ele>
        <time>2024-05-05T13:15:57Z</time>
      </trkpt>
      <trkpt lat="48.4455" lon="2.6051">
        <ele>82</ele>
        <time>2024-05-05T13:16:21Z</time>
      </trkpt>
      <trkpt lat="48.44546" lon="2.60542">
        <ele>82</ele>
        <time>2024-05-05T13:16:50Z</time>
      </trkpt>
      <trkpt lat="48.44534" lon="2.60588">
        <ele>82</ele>
        <time>2024-05-05T13:17:34Z</time>
      </trkpt>
      <trkpt lat="48.44521" lon="2.60615">
        <ele>82</ele>
        <time>2024-05-05T13:18:03Z</time>
      </trkpt>
      <trkpt lat="48.44515" lon="2.60636">
        <ele>82</ele>
        <time>2024-05-05T13:18:23Z</time>
      </trkpt>
      <trkpt lat="48.44517" lon="2.60642">
        <ele>82</ele>
        <time>2024-05-05T13:18:29Z</time>
      </trkpt>
      <trkpt lat="48.445" lon="2.60667">
        <ele>82</ele>
        <time>2024-05-05T13:19:01Z</time>
      </trkpt>
      <trkpt lat="48.44495" lon="2.6069">
        <ele>82</ele>
        <time>2024-05-05T13:19:22Z</time>
      </trkpt>
      <trkpt lat="48.44496" lon="2.60707">
        <ele>82</ele>
        <time>2024-05-05T13:19:38Z</time>
      </trkpt>
      <trkpt lat="48.4448" lon="2.6074">
        <ele>83</ele>
        <time>2024-05-05T13:20:14Z</time>
      </trkpt>
      <trkpt lat="48.44457" lon="2.60764">
        <ele>83</ele>
        <time>2024-05-05T13:20:51Z</time>
      </trkpt>
      <trkpt lat="48.44433" lon="2.60812">
        <ele>84</ele>
        <time>2024-05-05T13:21:44Z</time>
      </trkpt>
      <trkpt lat="48.44405" lon="2.60903">
        <ele>84</ele>
        <time>2024-05-05T13:23:13Z</time>
      </trkpt>
      <trkpt lat="48.44408" lon="2.60909">
        <ele>83</ele>
        <time>2024-05-05T13:23:20Z</time>
      </trkpt>
      <trkpt lat="48.44406" lon="2.60921">
        <ele>83</ele>
        <time>2024-05-05T13:23:31Z</time>
      </trkpt>
      <trkpt lat="48.44382" lon="2.60965">
        <ele>84</ele>
        <time>2024-05-05T13:24:21Z</time>
      </trkpt>
      <trkpt lat="48.44374" lon="2.61">
        <ele>84</ele>
        <time>2024-05-05T13:24:54Z</time>
      </trkpt>
      <trkpt lat="48.44351" lon="2.61046">
        <ele>85</ele>
        <time>2024-05-05T13:25:45Z</time>
      </trkpt>
      <trkpt lat="48.44349" lon="2.6106">
        <ele>86</ele>
        <time>2024-05-05T13:25:58Z</time>
      </trkpt>
      <trkpt lat="48.44336" lon="2.6108">
        <ele>86</ele>
        <time>2024-05-05T13:26:22Z</time>
      </trkpt>
      <trkpt lat="48.44293" lon="2.61208">
        <ele>92</ele>
        <time>2024-05-05T13:28:29Z</time>
      </trkpt>
      <trkpt lat="48.44264" lon="2.61234">
        <ele>95</ele>
        <time>2024-05-05T13:29:14Z</time>
      </trkpt>
      <trkpt lat="48.44244" lon="2.61244">
        <ele>96</ele>
        <time>2024-05-05T13:29:43Z</time>
      </trkpt>
      <trkpt lat="48.44232" lon="2.61257">
        <ele>96</ele>
        <time>2024-05-05T13:30:02Z</time>
      </trkpt>
      <trkpt lat="48.4418" lon="2.61296">
        <ele>97</ele>
        <time>2024-05-05T13:31:20Z</time>
      </trkpt>
      <trkpt lat="48.4416" lon="2.61303">
        <ele>98</ele>
        <time>2024-05-05T13:31:47Z</time>
      </trkpt>
      <trkpt lat="48.44137" lon="2.61319">
        <ele>99</ele>
        <time>2024-05-05T13:32:21Z</time>
      </trkpt>
      <trkpt lat="48.44126" lon="2.61321">
        <ele>100</ele>
        <time>2024-05-05T13:32:36Z</time>
      </trkpt>
      <trkpt lat="48.44122" lon="2.61327">
        <ele>100</ele>
        <time>2024-05-05T13:32:43Z</time>
      </trkpt>
      <trkpt lat="48.44091" lon="2.61342">
        <ele>101</ele>
        <time>2024-05-05T13:33:27Z</time>
      </trkpt>
      <trkpt lat="48.44077" lon="2.61339">
        <ele>102</ele>
        <time>2024-05-05T13:33:46Z</time>
      </trkpt>
      <trkpt lat="48.44064" lon="2.61362">
        <ele>103</ele>
        <time>2024-05-05T13:34:12Z</time>
      </trkpt>
      <trkpt lat="48.44065" lon="2.61382">
        <ele>103</ele>
        <time>2024-05-05T13:34:30Z</time>
      </trkpt>
      <trkpt lat="48.44034" lon="2.61397">
        <ele>105</ele>
        <time>2024-05-05T13:35:14Z</time>
      </trkpt>
      <trkpt lat="48.44002" lon="2.61433">
        <ele>109</ele>
        <time>2024-05-05T13:36:07Z</time>
      </trkpt>
      <trkpt lat="48.43971" lon="2.61437">
        <ele>110</ele>
        <time>2024-05-05T13:36:48Z</time>
      </trkpt>
      <trkpt lat="48.4396" lon="2.6145">
        <ele>111</ele>
        <time>2024-05-05T13:37:07Z</time>
      </trkpt>
      <trkpt lat="48.43955" lon="2.61448">
        <ele>111</ele>
        <time>2024-05-05T13:37:14Z</time>
      </trkpt>
      <trkpt lat="48.43955" lon="2.61435">
        <ele>111</ele>
        <time>2024-05-05T13:37:25Z</time>
      </trkpt>
      <trkpt lat="48.43951" lon="2.61434">
        <ele>111</ele>
        <time>2024-05-05T13:37:31Z</time>
      </trkpt>
      <trkpt lat="48.43944" lon="2.61443">
        <ele>111</ele>
        <time>2024-05-05T13:37:43Z</time>
      </trkpt>
      <trkpt lat="48.43943" lon="2.61465">
        <ele>111</ele>
        <time>2024-05-05T13:38:03Z</time>
      </trkpt>
      <trkpt lat="48.4393" lon="2.61461">
        <ele>111</ele>
        <time>2024-05-05T13:38:20Z</time>
      </trkpt>
      <trkpt lat="48.43919" lon="2.61448">
        <ele>111</ele>
        <time>2024-05-05T13:38:39Z</time>
      </trkpt>
      <trkpt lat="48.43913" lon="2.61448">
        <ele>111</ele>
        <time>2024-05-05T13:38:47Z</time>
      </trkpt>
      <trkpt lat="48.43902" lon="2.61479">
        <ele>109</ele>
        <time>2024-05-05T13:39:18Z</time>
      </trkpt>
      <trkpt lat="48.43894" lon="2.61487">
        <ele>108</ele>
        <time>2024-05-05T13:39:31Z</time>
      </trkpt>
      <trkpt lat="48.43881" lon="2.61488">
        <ele>106</ele>
        <time>2024-05-05T13:39:48Z</time>
      </trkpt>
      <trkpt lat="48.43876" lon="2.61492">
        <ele>106</ele>
        <time>2024-05-05T13:39:56Z</time>
      </trkpt>
      <trkpt lat="48.43863" lon="2.61511">
        <ele>103</ele>
        <time>2024-05-05T13:40:20Z</time>
      </trkpt>
      <trkpt lat="48.43834" lon="2.61567">
        <ele>98</ele>
        <time>2024-05-05T13:41:23Z</time>
      </trkpt>
      <trkpt lat="48.43822" lon="2.61606">
        <ele>98</ele>
        <time>2024-05-05T13:42:01Z</time>
      </trkpt>
      <trkpt lat="48.43808" lon="2.61636">
        <ele>97</ele>
        <time>2024-05-05T13:42:33Z</time>
      </trkpt>
      <trkpt lat="48.43799" lon="2.61645">
        <ele>97</ele>
        <time>2024-05-05T13:42:48Z</time>
      </trkpt>
      <trkpt lat="48.43766" lon="2.6178">
        <ele>93</ele>
        <time>2024-05-05T13:44:55Z</time>
      </trkpt>
      <trkpt lat="48.43756" lon="2.61779">
        <ele>93</ele>
        <time>2024-05-05T13:45:09Z</time>
      </trkpt>
      <trkpt lat="48.43744" lon="2.61771">
        <ele>93</ele>
        <time>2024-05-05T13:45:26Z</time>
      </trkpt>
      <trkpt lat="48.43725" lon="2.6175">
        <ele>93</ele>
        <time>2024-05-05T13:45:58Z</time>
      </trkpt>
      <trkpt lat="48.43709" lon="2.61751">
        <ele>93</ele>
        <time>2024-05-05T13:46:19Z</time>
      </trkpt>
      <trkpt lat="48.43692" lon="2.61719">
        <ele>94</ele>
        <time>2024-05-05T13:46:55Z</time>
      </trkpt>
      <trkpt lat="48.43642" lon="2.6168">
        <ele>96</ele>
        <time>2024-05-05T13:48:10Z</time>
      </trkpt>
      <trkpt lat="48.43626" lon="2.61659">
        <ele>97</ele>
        <time>2024-05-05T13:48:39Z</time>
      </trkpt>
      <trkpt lat="48.43608" lon="2.61645">
        <ele>97</ele>
        <time>2024-05-05T13:49:06Z</time>
      </trkpt>
      <trkpt lat="48.43595" lon="2.61623">
        <ele>98</ele>
        <time>2024-05-05T13:49:32Z</time>
      </trkpt>
      <trkpt lat="48.4356" lon="2.61612">
        <ele>101</ele>
        <time>2024-05-05T13:50:19Z</time>
      </trkpt>
      <trkpt lat="48.43549" lon="2.61593">
        <ele>102</ele>
        <time>2024-05-05T13:50:42Z</time>
      </trkpt>
      <trkpt lat="48.43547" lon="2.61598">
        <ele>102</ele>
        <time>2024-05-05T13:50:47Z</time>
      </trkpt>
      <trkpt lat="48.43543" lon="2.61591">
        <ele>103</ele>
        <time>2024-05-05T13:50:55Z</time>
      </trkpt>
      <trkpt lat="48.43538" lon="2.6155">
        <ele>105</ele>
        <time>2024-05-05T13:51:32Z</time>
      </trkpt>
      <trkpt lat="48.43532" lon="2.61536">
        <ele>107</ele>
        <time>2024-05-05T13:51:47Z</time>
      </trkpt>
      <trkpt lat="48.43511" lon="2.61524">
        <ele>111</ele>
        <time>2024-05-05T13:52:17Z</time>
      </trkpt>
      <trkpt lat="48.43492" lon="2.61529">
        <ele>114</ele>
        <time>2024-05-05T13:52:43Z</time>
      </trkpt>
      <trkpt lat="48.43479" lon="2.61509">
        <ele>117</ele>
        <time>2024-05-05T13:53:07Z</time>
      </trkpt>
      <trkpt lat="48.43471" lon="2.61505">
        <ele>119</ele>
        <time>2024-05-05T13:53:19Z</time>
      </trkpt>
      <trkpt lat="48.43464" lon="2.61495">
        <ele>120</ele>
        <time>2024-05-05T13:53:31Z</time>
      </trkpt>
      <trkpt lat="48.43466" lon="2.61476">
        <ele>121</ele>
        <time>2024-05-05T13:53:48Z</time>
      </trkpt>
      <trkpt lat="48.43451" lon="2.61484">
        <ele>122</ele>
        <time>2024-05-05T13:54:10Z</time>
      </trkpt>
      <trkpt lat="48.43454" lon="2.61487">
        <ele>122</ele>
        <time>2024-05-05T13:54:14Z</time>
      </trkpt>
      <trkpt lat="48.43452" lon="2.61481">
        <ele>122</ele>
        <time>2024-05-05T13:54:20Z</time>
      </trkpt>
      <trkpt lat="48.43439" lon="2.61488">
        <ele>124</ele>
        <time>2024-05-05T13:54:39Z</time>
      </trkpt>
      <trkpt lat="48.43435" lon="2.61494">
        <ele>124</ele>
        <time>2024-05-05T13:54:46Z</time>
      </trkpt>
      <trkpt lat="48.43439" lon="2.615">
        <ele>124</ele>
        <time>2024-05-05T13:54:54Z</time>
      </trkpt>
      <trkpt lat="48.43442" lon="2.61485">
        <ele>123</ele>
        <time>2024-05-05T13:55:08Z</time>
      </trkpt>
      <trkpt lat="48.43434" lon="2.61473">
        <ele>124</ele>
        <time>2024-05-05T13:55:23Z</time>
      </trkpt>
      <trkpt lat="48.43427" lon="2.61493">
        <ele>125</ele>
        <time>2024-05-05T13:55:43Z</time>
      </trkpt>
      <trkpt lat="48.4343" lon="2.6151">
        <ele>125</ele>
        <time>2024-05-05T13:55:58Z</time>
      </trkpt>
      <trkpt lat="48.4342" lon="2.61535">
        <ele>127</ele>
        <time>2024-05-05T13:56:24Z</time>
      </trkpt>
      <trkpt lat="48.43414" lon="2.61576">
        <ele>128</ele>
        <time>2024-05-05T13:57:01Z</time>
      </trkpt>
      <trkpt lat="48.43404" lon="2.61593">
        <ele>127</ele>
        <time>2024-05-05T13:57:22Z</time>
      </trkpt>
      <trkpt lat="48.43403" lon="2.61611">
        <ele>127</ele>
        <time>2024-05-05T13:57:38Z</time>
      </trkpt>
      <trkpt lat="48.4341" lon="2.61646">
        <ele>127</ele>
        <time>2024-05-05T13:58:10Z</time>
      </trkpt>
      <trkpt lat="48.43394" lon="2.61698">
        <ele>126</ele>
        <time>2024-05-05T13:59:01Z</time>
      </trkpt>
      <trkpt lat="48.43384" lon="2.61707">
        <ele>126</ele>
        <time>2024-05-05T13:59:16Z</time>
      </trkpt>
      <trkpt lat="48.43376" lon="2.61759">
        <ele>127</ele>
        <time>2024-05-05T14:00:03Z</time>
      </trkpt>
      <trkpt lat="48.43367" lon="2.61772">
        <ele>128</ele>
        <time>2024-05-05T14:00:20Z</time>
      </trkpt>
      <trkpt lat="48.43355" lon="2.61824">
        <ele>129</ele>
        <time>2024-05-05T14:01:09Z</time>
      </trkpt>
      <trkpt lat="48.43367" lon="2.61861">
        <ele>129</ele>
        <time>2024-05-05T14:01:45Z</time>
      </trkpt>
      <trkpt lat="48.43365" lon="2.61885">
        <ele>129</ele>
        <time>2024-05-05T14:02:07Z</time>
      </trkpt>
      <trkpt lat="48.43369" lon="2.61899">
        <ele>129</ele>
        <time>2024-05-05T14:02:20Z</time>
      </trkpt>
      <trkpt lat="48.4336" lon="2.61918">
        <ele>130</ele>
        <time>2024-05-05T14:02:41Z</time>
      </trkpt>
      <trkpt lat="48.4335" lon="2.62009">
        <ele>132</ele>
        <time>2024-05-05T14:04:03Z</time>
      </trkpt>
      <trkpt lat="48.43331" lon="2.62072">
        <ele>133</ele>
        <time>2024-05-05T14:05:04Z</time>
      </trkpt>
      <trkpt lat="48.4333" lon="2.62108">
        <ele>131</ele>
        <time>2024-05-05T14:05:36Z</time>
      </trkpt>
      <trkpt lat="48.43324" lon="2.62124">
        <ele>131</ele>
        <time>2024-05-05T14:05:52Z</time>
      </trkpt>
      <trkpt lat="48.43322" lon="2.62148">
        <ele>130</ele>
        <time>2024-05-05T14:06:13Z</time>
      </trkpt>
      <trkpt lat="48.43311" lon="2.62164">
        <ele>131</ele>
        <time>2024-05-05T14:06:34Z</time>
      </trkpt>
      <trkpt lat="48.43308" lon="2.62192">
        <ele>130</ele>
        <time>2024-05-05T14:06:59Z</time>
      </trkpt>
      <trkpt lat="48.43299" lon="2.62221">
        <ele>130</ele>
        <time>2024-05-05T14:07:27Z</time>
      </trkpt>
      <trkpt lat="48.43302" lon="2.62259">
        <ele>128</ele>
        <time>2024-05-05T14:08:01Z</time>
      </trkpt>
      <trkpt lat="48.4329" lon="2.62278">
        <ele>128</ele>
        <time>2024-05-05T14:08:24Z</time>
      </trkpt>
      <trkpt lat="48.43286" lon="2.62295">
        <ele>128</ele>
        <time>2024-05-05T14:08:40Z</time>
      </trkpt>
      <trkpt lat="48.43288" lon="2.62317">
        <ele>127</ele>
        <time>2024-05-05T14:09:00Z</time>
      </trkpt>
      <trkpt lat="48.43283" lon="2.6234">
        <ele>127</ele>
        <time>2024-05-05T14:09:21Z</time>
      </trkpt>
      <trkpt lat="48.43268" lon="2.62362">
        <ele>128</ele>
        <time>2024-05-05T14:09:49Z</time>
      </trkpt>
      <trkpt lat="48.43261" lon="2.62369">
        <ele>129</ele>
        <time>2024-05-05T14:10:01Z</time>
      </trkpt>
      <trkpt lat="48.43251" lon="2.62368">
        <ele>130</ele>
        <time>2024-05-05T14:10:14Z</time>
      </trkpt>
      <trkpt lat="48.43234" lon="2.62333">
        <ele>132</ele>
        <time>2024-05-05T14:10:52Z</time>
      </trkpt>
      <trkpt lat="48.43205" lon="2.62289">
        <ele>135</ele>
        <time>2024-05-05T14:11:47Z</time>
      </trkpt>
      <trkpt lat="48.43179" lon="2.62275">
        <ele>136</ele>
        <time>2024-05-05T14:12:24Z</time>
      </trkpt>
      <trkpt lat="48.4315" lon="2.62274">
        <ele>138</ele>
        <time>2024-05-05T14:13:03Z</time>
      </trkpt>
      <trkpt lat="48.43093" lon="2.6221">
        <ele>138</ele>
        <time>2024-05-05T14:14:38Z</time>
      </trkpt>
      <trkpt lat="48.43064" lon="2.62189">
        <ele>138</ele>
        <time>2024-05-05T14:15:21Z</time>
      </trkpt>
      <trkpt lat="48.43039" lon="2.62152">
        <ele>137</ele>
        <time>2024-05-05T14:16:07Z</time>
      </trkpt>
      <trkpt lat="48.42974" lon="2.62094">
        <ele>138</ele>
        <time>2024-05-05T14:17:48Z</time>
      </trkpt>
      <trkpt lat="48.42964" lon="2.62078">
        <ele>138</ele>
        <time>2024-05-05T14:18:08Z</time>
      </trkpt>
      <trkpt lat="48.42921" lon="2.62045">
        <ele>139</ele>
        <time>2024-05-05T14:19:12Z</time>
      </trkpt>
      <trkpt lat="48.42914" lon="2.62042">
        <ele>139</ele>
        <time>2024-05-05T14:19:22Z</time>
      </trkpt>
      <trkpt lat="48.42905" lon="2.62045">
        <ele>139</ele>
        <time>2024-05-05T14:19:34Z</time>
      </trkpt>
      <trkpt lat="48.42891" lon="2.62077">
        <ele>140</ele>
        <time>2024-05-05T14:20:08Z</time>
      </trkpt>
      <trkpt lat="48.42884" lon="2.6212">
        <ele>140</ele>
        <time>2024-05-05T14:20:47Z</time>
      </trkpt>
      <trkpt lat="48.42827" lon="2.62276">
        <ele>137</ele>
        <time>2024-05-05T14:23:25Z</time>
      </trkpt>
      <trkpt lat="48.42817" lon="2.62323">
        <ele>137</ele>
        <time>2024-05-05T14:24:09Z</time>
      </trkpt>
      <trkpt lat="48.42787" lon="2.62384">
        <ele>137</ele>
        <time>2024-05-05T14:25:16Z</time>
      </trkpt>
      <trkpt lat="48.42766" lon="2.62438">
        <ele>136</ele>
        <time>2024-05-05T14:26:11Z</time>
      </trkpt>
      <trkpt lat="48.42749" lon="2.62507">
        <ele>135</ele>
        <time>2024-05-05T14:27:16Z</time>
      </trkpt>
      <trkpt lat="48.4271" lon="2.62603">
        <ele>133</ele>
        <time>2024-05-05T14:28:56Z</time>
      </trkpt>
      <trkpt lat="48.42697" lon="2.62655">
        <ele>132</ele>
        <time>2024-05-05T14:29:45Z</time>
      </trkpt>
      <trkpt lat="48.42661" lon="2.62731">
        <ele>132</ele>
        <time>2024-05-05T14:31:08Z</time>
      </trkpt>
      <trkpt lat="48.42645" lon="2.62752">
        <ele>133</ele>
        <time>2024-05-05T14:31:36Z</time>
      </trkpt>
      <trkpt lat="48.42609" lon="2.62822">
        <ele>134</ele>
        <time>2024-05-05T14:32:55Z</time>
      </trkpt>
      <trkpt lat="48.42595" lon="2.62857">
        <ele>134</ele>
        <time>2024-05-05T14:33:31Z</time>
      </trkpt>
      <trkpt lat="48.4257" lon="2.62897">
        <ele>135</ele>
        <time>2024-05-05T14:34:20Z</time>
      </trkpt>
      <trkpt lat="48.42514" lon="2.63018">
        <ele>132</ele>
        <time>2024-05-05T14:36:30Z</time>
      </trkpt>
      <trkpt lat="48.42465" lon="2.63023">
        <ele>127</ele>
        <time>2024-05-05T14:37:36Z</time>
      </trkpt>
      <trkpt lat="48.4245" lon="2.6303">
        <ele>125</ele>
        <time>2024-05-05T14:37:57Z</time>
      </trkpt>
      <trkpt lat="48.42411" lon="2.63033">
        <ele>120</ele>
        <time>2024-05-05T14:38:49Z</time>
      </trkpt>
      <trkpt lat="48.42371" lon="2.63043">
        <ele>115</ele>
        <time>2024-05-05T14:39:43Z</time>
      </trkpt>
      <trkpt lat="48.42349" lon="2.63038">
        <ele>113</ele>
        <time>2024-05-05T14:40:13Z</time>
      </trkpt>
      <trkpt lat="48.4233" lon="2.63048">
        <ele>111</ele>
        <time>2024-05-05T14:40:40Z</time>
      </trkpt>
      <trkpt lat="48.42294" lon="2.63059">
        <ele>109</ele>
        <time>2024-05-05T14:41:29Z</time>
      </trkpt>
      <trkpt lat="48.42262" lon="2.63059">
        <ele>107</ele>
        <time>2024-05-05T14:42:11Z</time>
      </trkpt>
      <trkpt lat="48.42253" lon="2.63065">
        <ele>107</ele>
        <time>2024-05-05T14:42:24Z</time>
      </trkpt>
      <trkpt lat="48.42248" lon="2.63077">
        <ele>107</ele>
        <time>2024-05-05T14:42:37Z</time>
      </trkpt>
      <trkpt lat="48.42246" lon="2.63107">
        <ele>107</ele>
        <time>2024-05-05T14:43:04Z</time>
      </trkpt>
      <trkpt lat="48.42257" lon="2.63156">
        <ele>107</ele>
        <time>2024-05-05T14:43:49Z</time>
      </trkpt>
      <trkpt lat="48.42267" lon="2.63261">
        <ele>109</ele>
        <time>2024-05-05T14:45:23Z</time>
      </trkpt>
      <trkpt lat="48.4226" lon="2.63318">
        <ele>109</ele>
        <time>2024-05-05T14:46:15Z</time>
      </trkpt>
      <trkpt lat="48.42272" lon="2.63376">
        <ele>110</ele>
        <time>2024-05-05T14:47:08Z</time>
      </trkpt>
      <trkpt lat="48.42276" lon="2.63454">
        <ele>112</ele>
        <time>2024-05-05T14:48:18Z</time>
      </trkpt>
      <trkpt lat="48.42284" lon="2.6347">
        <ele>112</ele>
        <time>2024-05-05T14:48:36Z</time>
      </trkpt>
      <trkpt lat="48.42289" lon="2.63522">
        <ele>113</ele>
        <time>2024-05-05T14:49:22Z</time>
      </trkpt>
      <trkpt lat="48.42286" lon="2.63563">
        <ele>113</ele>
        <time>2024-05-05T14:49:59Z</time>
      </trkpt>
      <trkpt lat="48.42288" lon="2.63611">
        <ele>113</ele>
        <time>2024-05-05T14:50:41Z</time>
      </trkpt>
      <trkpt lat="48.42294" lon="2.63633">
        <ele>113</ele>
        <time>2024-05-05T14:51:02Z</time>
      </trkpt>
      <trkpt lat="48.42292" lon="2.63686">
        <ele>113</ele>
        <time>2024-05-05T14:51:49Z</time>
      </trkpt>
      <trkpt lat="48.42299" lon="2.63707">
        <ele>113</ele>
        <time>2024-05-05T14:52:10Z</time>
      </trkpt>
      <trkpt lat="48.42306" lon="2.63778">
        <ele>113</ele>
        <time>2024-05-05T14:53:14Z</time>
      </trkpt>
      <trkpt lat="48.42314" lon="2.63797">
        <ele>113</ele>
        <time>2024-05-05T14:53:34Z</time>
      </trkpt>
      <trkpt lat="48.42321" lon="2.63862">
        <ele>114</ele>
        <time>2024-05-05T14:54:32Z</time>
      </trkpt>
      <trkpt lat="48.4234" lon="2.63941">
        <ele>113</ele>
        <time>2024-05-05T14:55:46Z</time>
      </trkpt>
      <trkpt lat="48.4234" lon="2.63947">
        <ele>113</ele>
        <time>2024-05-05T14:55:52Z</time>
      </trkpt>
      <trkpt lat="48.42334" lon="2.6395">
        <ele>113</ele>
        <time>2024-05-05T14:56:00Z</time>
      </trkpt>
      <trkpt lat="48.42341" lon="2.63952">
        <ele>113</ele>
        <time>2024-05-05T14:56:10Z</time>
      </trkpt>
      <trkpt lat="48.42337" lon="2.63956">
        <ele>113</ele>
        <time>2024-05-05T14:56:16Z</time>
      </trkpt>
      <trkpt lat="48.42344" lon="2.63948">
        <ele>114</ele>
        <time>2024-05-05T14:56:28Z</time>
      </trkpt>
      <trkpt lat="48.42324" lon="2.63965">
        <ele>113</ele>
        <time>2024-05-05T14:56:58Z</time>
      </trkpt>
      <trkpt lat="48.4233" lon="2.63962">
        <ele>113</ele>
        <time>2024-05-05T14:57:07Z</time>
      </trkpt>
      <trkpt lat="48.4233" lon="2.63967">
        <ele>113</ele>
        <time>2024-05-05T14:57:11Z</time>
      </trkpt>
      <trkpt lat="48.42291" lon="2.63989">
        <ele>115</ele>
        <time>2024-05-05T14:58:07Z</time>
      </trkpt>
      <trkpt lat="48.42265" lon="2.63996">
        <ele>118</ele>
        <time>2024-05-05T14:58:42Z</time>
      </trkpt>
      <trkpt lat="48.42232" lon="2.64022">
        <ele>123</ele>
        <time>2024-05-05T14:59:32Z</time>
      </trkpt>
      <trkpt lat="48.42222" lon="2.64024">
        <ele>124</ele>
        <time>2024-05-05T14:59:45Z</time>
      </trkpt>
      <trkpt lat="48.42181" lon="2.64054">
        <ele>131</ele>
        <time>2024-05-05T15:00:46Z</time>
      </trkpt>
      <trkpt lat="48.42169" lon="2.64058">
        <ele>133</ele>
        <time>2024-05-05T15:01:02Z</time>
      </trkpt>
      <trkpt lat="48.42156" lon="2.64069">
        <ele>135</ele>
        <time>2024-05-05T15:01:22Z</time>
      </trkpt>
      <trkpt lat="48.4213" lon="2.64078">
        <ele>137</ele>
        <time>2024-05-05T15:01:58Z</time>
      </trkpt>
      <trkpt lat="48.42115" lon="2.64094">
        <ele>138</ele>
        <time>2024-05-05T15:02:22Z</time>
      </trkpt>
      <trkpt lat="48.42036" lon="2.64138">
        <ele>139</ele>
        <time>2024-05-05T15:04:15Z</time>
      </trkpt>
      <trkpt lat="48.42028" lon="2.64162">
        <ele>138</ele>
        <time>2024-05-05T15:04:39Z</time>
      </trkpt>
      <trkpt lat="48.42012" lon="2.64191">
        <ele>138</ele>
        <time>2024-05-05T15:05:12Z</time>
      </trkpt>
      <trkpt lat="48.42001" lon="2.64228">
        <ele>138</ele>
        <time>2024-05-05T15:05:48Z</time>
      </trkpt>
      <trkpt lat="48.41979" lon="2.64274">
        <ele>138</ele>
        <time>2024-05-05T15:06:38Z</time>
      </trkpt>
      <trkpt lat="48.41949" lon="2.64319">
        <ele>138</ele>
        <time>2024-05-05T15:07:35Z</time>
      </trkpt>
      <trkpt lat="48.41893" lon="2.64451">
        <ele>142</ele>
        <time>2024-05-05T15:09:53Z</time>
      </trkpt>
      <trkpt lat="48.41858" lon="2.64518">
        <ele>144</ele>
        <time>2024-05-05T15:11:09Z</time>
      </trkpt>
      <trkpt lat="48.41845" lon="2.64556">
        <ele>144</ele>
        <time>2024-05-05T15:11:47Z</time>
      </trkpt>
      <trkpt lat="48.41812" lon="2.64625">
        <ele>144</ele>
        <time>2024-05-05T15:13:02Z</time>
      </trkpt>
      <trkpt lat="48.41787" lon="2.64664">
        <ele>143</ele>
        <time>2024-05-05T15:13:50Z</time>
      </trkpt>
      <trkpt lat="48.41785" lon="2.64677">
        <ele>143</ele>
        <time>2024-05-05T15:14:02Z</time>
      </trkpt>
      <trkpt lat="48.41767" lon="2.64719">
        <ele>143</ele>
        <time>2024-05-05T15:14:46Z</time>
      </trkpt>
      <trkpt lat="48.41728" lon="2.64798">
        <ele>143</ele>
        <time>2024-05-05T15:16:13Z</time>
      </trkpt>
      <trkpt lat="48.41725" lon="2.64815">
        <ele>143</ele>
        <time>2024-05-05T15:16:29Z</time>
      </trkpt>
      <trkpt lat="48.41723" lon="2.64818">
        <ele>143</ele>
        <time>2024-05-05T15:16:33Z</time>
      </trkpt>
      <trkpt lat="48.41718" lon="2.64815">
        <ele>143</ele>
        <time>2024-05-05T15:16:40Z</time>
      </trkpt>
      <trkpt lat="48.41724" lon="2.6483">
        <ele>143</ele>
        <time>2024-05-05T15:16:55Z</time>
      </trkpt>
      <trkpt lat="48.41728" lon="2.64826">
        <ele>143</ele>
        <time>2024-05-05T15:17:02Z</time>
      </trkpt>
      <trkpt lat="48.41731" lon="2.6481">
        <ele>143</ele>
        <time>2024-05-05T15:17:17Z</time>
      </trkpt>
      <trkpt lat="48.41723" lon="2.64812">
        <ele>143</ele>
        <time>2024-05-05T15:17:27Z</time>
      </trkpt>
      <trkpt lat="48.41715" lon="2.64822">
        <ele>143</ele>
        <time>2024-05-05T15:17:41Z</time>
      </trkpt>
      <trkpt lat="48.41653" lon="2.64914">
        <ele>141</ele>
        <time>2024-05-05T15:19:37Z</time>
      </trkpt>
      <trkpt lat="48.41552" lon="2.65083">
        <ele>141</ele>
        <time>2024-05-05T15:22:59Z</time>
      </trkpt>
      <trkpt lat="48.41386" lon="2.6534">
        <ele>137</ele>
        <time>2024-05-05T15:28:16Z</time>
      </trkpt>
      <trkpt lat="48.4134" lon="2.65425">
        <ele>137</ele>
        <time>2024-05-05T15:29:54Z</time>
      </trkpt>
      <trkpt lat="48.41309" lon="2.65457">
        <ele>137</ele>
        <time>2024-05-05T15:30:44Z</time>
      </trkpt>
      <trkpt lat="48.41282" lon="2.6551">
        <ele>137</ele>
        <time>2024-05-05T15:31:43Z</time>
      </trkpt>
      <trkpt lat="48.41242" lon="2.65567">
        <ele>135</ele>
        <time>2024-05-05T15:32:56Z</time>
      </trkpt>
      <trkpt lat="48.41186" lon="2.65663">
        <ele>133</ele>
        <time>2024-05-05T15:34:50Z</time>
      </trkpt>
      <trkpt lat="48.41163" lon="2.65688">
        <ele>133</ele>
        <time>2024-05-05T15:35:27Z</time>
      </trkpt>
      <trkpt lat="48.41155" lon="2.65712">
        <ele>133</ele>
        <time>2024-05-05T15:35:51Z</time>
      </trkpt>
      <trkpt lat="48.41119" lon="2.65777">
        <ele>131</ele>
        <time>2024-05-05T15:37:06Z</time>
      </trkpt>
      <trkpt lat="48.41092" lon="2.65837">
        <ele>132</ele>
        <time>2024-05-05T15:38:10Z</time>
      </trkpt>
      <trkpt lat="48.41009" lon="2.65989">
        <ele>136</ele>
        <time>2024-05-05T15:41:05Z</time>
      </trkpt>
      <trkpt lat="48.40998" lon="2.66024">
        <ele>138</ele>
        <time>2024-05-05T15:41:39Z</time>
      </trkpt>
      <trkpt lat="48.40947" lon="2.66134">
        <ele>139</ele>
        <time>2024-05-05T15:43:38Z</time>
      </trkpt>
      <trkpt lat="48.40896" lon="2.66216">
        <ele>139</ele>
        <time>2024-05-05T15:45:17Z</time>
      </trkpt>
      <trkpt lat="48.40913" lon="2.66326">
        <ele>138</ele>
        <time>2024-05-05T15:46:57Z</time>
      </trkpt>
      <trkpt lat="48.40913" lon="2.66375">
        <ele>138</ele>
        <time>2024-05-05T15:47:41Z</time>
      </trkpt>
      <trkpt lat="48.40927" lon="2.66491">
        <ele>137</ele>
        <time>2024-05-05T15:49:25Z</time>
      </trkpt>
      <trkpt lat="48.40934" lon="2.66519">
        <ele>136</ele>
        <time>2024-05-05T15:49:52Z</time>
      </trkpt>
      <trkpt lat="48.40943" lon="2.66576">
        <ele>136</ele>
        <time>2024-05-05T15:50:44Z</time>
      </trkpt>
      <trkpt lat="48.40942" lon="2.66597">
        <ele>136</ele>
        <time>2024-05-05T15:51:02Z</time>
      </trkpt>
      <trkpt lat="48.40952" lon="2.66648">
        <ele>135</ele>
        <time>2024-05-05T15:51:49Z</time>
      </trkpt>
      <trkpt lat="48.40951" lon="2.66704">
        <ele>135</ele>
        <time>2024-05-05T15:52:39Z</time>
      </trkpt>
      <trkpt lat="48.40955" lon="2.66717">
        <ele>135</ele>
        <time>2024-05-05T15:52:52Z</time>
      </trkpt>
      <trkpt lat="48.40955" lon="2.66752">
        <ele>135</ele>
        <time>2024-05-05T15:53:23Z</time>
      </trkpt>
      <trkpt lat="48.40961" lon="2.66778">
        <ele>133</ele>
        <time>2024-05-05T15:53:47Z</time>
      </trkpt>
      <trkpt lat="48.40974" lon="2.66912">
        <ele>124</ele>
        <time>2024-05-05T15:55:47Z</time>
      </trkpt>
      <trkpt lat="48.40985" lon="2.66971">
        <ele>121</ele>
        <time>2024-05-05T15:56:41Z</time>
      </trkpt>
      <trkpt lat="48.41017" lon="2.6728">
        <ele>110</ele>
        <time>2024-05-05T16:01:18Z</time>
      </trkpt>
      <trkpt lat="48.41023" lon="2.6732">
        <ele>108</ele>
        <time>2024-05-05T16:01:55Z</time>
      </trkpt>
      <trkpt lat="48.41032" lon="2.6733">
        <ele>106</ele>
        <time>2024-05-05T16:02:10Z</time>
      </trkpt>
      <trkpt lat="48.41031" lon="2.67359">
        <ele>106</ele>
        <time>2024-05-05T16:02:35Z</time>
      </trkpt>
      <trkpt lat="48.41008" lon="2.67439">
        <ele>104</ele>
        <time>2024-05-05T16:03:53Z</time>
      </trkpt>
      <trkpt lat="48.40979" lon="2.67499">
        <ele>103</ele>
        <time>2024-05-05T16:04:58Z</time>
      </trkpt>
      <trkpt lat="48.40956" lon="2.67567">
        <ele>100</ele>
        <time>2024-05-05T16:06:06Z</time>
      </trkpt>
      <trkpt lat="48.40943" lon="2.67592">
        <ele>99</ele>
        <time>2024-05-05T16:06:34Z</time>
      </trkpt>
      <trkpt lat="48.40912" lon="2.67675">
        <ele>97</ele>
        <time>2024-05-05T16:07:59Z</time>
      </trkpt>
      <trkpt lat="48.40842" lon="2.67893">
        <ele>94</ele>
        <time>2024-05-05T16:11:33Z</time>
      </trkpt>
      <trkpt lat="48.40811" lon="2.67979">
        <ele>93</ele>
        <time>2024-05-05T16:13:00Z</time>
      </trkpt>
      <trkpt lat="48.40785" lon="2.68037">
        <ele>91</ele>
        <time>2024-05-05T16:14:02Z</time>
      </trkpt>
      <trkpt lat="48.40738" lon="2.6818">
        <ele>89</ele>
        <time>2024-05-05T16:16:23Z</time>
      </trkpt>
      <trkpt lat="48.40717" lon="2.68223">
        <ele>88</ele>
        <time>2024-05-05T16:17:10Z</time>
      </trkpt>
      <trkpt lat="48.40705" lon="2.68271">
        <ele>88</ele>
        <time>2024-05-05T16:17:56Z</time>
      </trkpt>
      <trkpt lat="48.40685" lon="2.68311">
        <ele>87</ele>
        <time>2024-05-05T16:18:40Z</time>
      </trkpt>
      <trkpt lat="48.40672" lon="2.68366">
        <ele>87</ele>
        <time>2024-05-05T16:19:32Z</time>
      </trkpt>
      <trkpt lat="48.40639" lon="2.68448">
        <ele>89</ele>
        <time>2024-05-05T16:20:57Z</time>
      </trkpt>
      <trkpt lat="48.40636" lon="2.68468">
        <ele>89</ele>
        <time>2024-05-05T16:21:15Z</time>
      </trkpt>
      <trkpt lat="48.40622" lon="2.68507">
        <ele>89</ele>
        <time>2024-05-05T16:21:54Z</time>
      </trkpt>
      <trkpt lat="48.40599" lon="2.68553">
        <ele>87</ele>
        <time>2024-05-05T16:22:45Z</time>
      </trkpt>
      <trkpt lat="48.40574" lon="2.68625">
        <ele>85</ele>
        <time>2024-05-05T16:23:57Z</time>
      </trkpt>
      <trkpt lat="48.40559" lon="2.68655">
        <ele>84</ele>
        <time>2024-05-05T16:24:31Z</time>
      </trkpt>
      <trkpt lat="48.4055" lon="2.68685">
        <ele>84</ele>
        <time>2024-05-05T16:25:00Z</time>
      </trkpt>
      <trkpt lat="48.40551" lon="2.68705">
        <ele>83</ele>
        <time>2024-05-05T16:25:17Z</time>
      </trkpt>
      <trkpt lat="48.40547" lon="2.68723">
        <ele>83</ele>
        <time>2024-05-05T16:25:34Z</time>
      </trkpt>
      <trkpt lat="48.4054" lon="2.6874">
        <ele>83</ele>
        <time>2024-05-05T16:25:52Z</time>
      </trkpt>
      <trkpt lat="48.40525" lon="2.68758">
        <ele>82</ele>
        <time>2024-05-05T16:26:18Z</time>
      </trkpt>
      <trkpt lat="48.40494" lon="2.68865">
        <ele>84</ele>
        <time>2024-05-05T16:28:01Z</time>
      </trkpt>
      <trkpt lat="48.40473" lon="2.68909">
        <ele>84</ele>
        <time>2024-05-05T16:28:49Z</time>
      </trkpt>
      <trkpt lat="48.40432" lon="2.69053">
        <ele>82</ele>
        <time>2024-05-05T16:31:08Z</time>
      </trkpt>
      <trkpt lat="48.40391" lon="2.69174">
        <ele>81</ele>
        <time>2024-05-05T16:33:08Z</time>
      </trkpt>
      <trkpt lat="48.40385" lon="2.69205">
        <ele>82</ele>
        <time>2024-05-05T16:33:37Z</time>
      </trkpt>
      <trkpt lat="48.40376" lon="2.69217">
        <ele>82</ele>
        <time>2024-05-05T16:33:53Z</time>
      </trkpt>
      <trkpt lat="48.40371" lon="2.6924">
        <ele>82</ele>
        <time>2024-05-05T16:34:14Z</time>
      </trkpt>
      <trkpt lat="48.40355" lon="2.6926">
        <ele>82</ele>
        <time>2024-05-05T16:34:42Z</time>
      </trkpt>
      <trkpt lat="48.40357" lon="2.69279">
        <ele>82</ele>
        <time>2024-05-05T16:34:59Z</time>
      </trkpt>
      <trkpt lat="48.40351" lon="2.69318">
        <ele>82</ele>
        <time>2024-05-05T16:35:35Z</time>
      </trkpt>
      <trkpt lat="48.4034" lon="2.69338">
        <ele>82</ele>
        <time>2024-05-05T16:35:58Z</time>
      </trkpt>
      <trkpt lat="48.40333" lon="2.69364">
        <ele>82</ele>
        <time>2024-05-05T16:36:22Z</time>
      </trkpt>
      <trkpt lat="48.40322" lon="2.69382">
        <ele>82</ele>
        <time>2024-05-05T16:36:44Z</time>
      </trkpt>
      <trkpt lat="48.40307" lon="2.69433">
        <ele>82</ele>
        <time>2024-05-05T16:37:33Z</time>
      </trkpt>
      <trkpt lat="48.40303" lon="2.69472">
        <ele>81</ele>
        <time>2024-05-05T16:38:08Z</time>
      </trkpt>
      <trkpt lat="48.40291" lon="2.69486">
        <ele>82</ele>
        <time>2024-05-05T16:38:29Z</time>
      </trkpt>
      <trkpt lat="48.40276" lon="2.69517">
        <ele>81</ele>
        <time>2024-05-05T16:39:03Z</time>
      </trkpt>
      <trkpt lat="48.40261" lon="2.696">
        <ele>79</ele>
        <time>2024-05-05T16:40:19Z</time>
      </trkpt>
      <trkpt lat="48.40272" lon="2.69623">
        <ele>79</ele>
        <time>2024-05-05T16:40:44Z</time>
      </trkpt>
      <trkpt lat="48.40261" lon="2.69662">
        <ele>77</ele>
        <time>2024-05-05T16:41:22Z</time>
      </trkpt>
      <trkpt lat="48.40274" lon="2.69719">
        <ele>78</ele>
        <time>2024-05-05T16:42:15Z</time>
      </trkpt>
      <trkpt lat="48.40303" lon="2.69786">
        <ele>79</ele>
        <time>2024-05-05T16:43:26Z</time>
      </trkpt>
      <trkpt lat="48.40325" lon="2.69824">
        <ele>80</ele>
        <time>2024-05-05T16:44:10Z</time>
      </trkpt>
      <trkpt lat="48.4033" lon="2.69842">
        <ele>80</ele>
        <time>2024-05-05T16:44:28Z</time>
      </trkpt>
      <trkpt lat="48.40366" lon="2.69896">
        <ele>81</ele>
        <time>2024-05-05T16:45:36Z</time>
      </trkpt>
      <trkpt lat="48.40385" lon="2.69964">
        <ele>82</ele>
        <time>2024-05-05T16:46:41Z</time>
      </trkpt>
      <trkpt lat="48.40389" lon="2.6997">
        <ele>82</ele>
        <time>2024-05-05T16:46:48Z</time>
      </trkpt>
      <trkpt lat="48.40395" lon="2.69969">
        <ele>82</ele>
        <time>2024-05-05T16:46:56Z</time>
      </trkpt>
      <trkpt lat="48.40401" lon="2.69946">
        <ele>82</ele>
        <time>2024-05-05T16:47:18Z</time>
      </trkpt>
      <trkpt lat="48.40415" lon="2.6996">
        <ele>82</ele>
        <time>2024-05-05T16:47:41Z</time>
      </trkpt>
      <trkpt lat="48.40403" lon="2.69982">
        <ele>82</ele>
        <time>2024-05-05T16:48:06Z</time>
      </trkpt>
      <trkpt lat="48.40405" lon="2.69995">
        <ele>82</ele>
        <time>2024-05-05T16:48:18Z</time>
      </trkpt>
      <trkpt lat="48.40408" lon="2.69997">
        <ele>82</ele>
        <time>2024-05-05T16:48:22Z</time>
      </trkpt>
      <trkpt lat="48.40413" lon="2.6999">
        <ele>82</ele>
        <time>2024-05-05T16:48:31Z</time>
      </trkpt>
      <trkpt lat="48.40404" lon="2.69993">
        <ele>82</ele>
        <time>2024-05-05T16:48:44Z</time>
      </trkpt>
      <trkpt lat="48.40402" lon="2.70021">
        <ele>82</ele>
        <time>2024-05-05T16:49:09Z</time>
      </trkpt>
      <trkpt lat="48.40393" lon="2.70041">
        <ele>81</ele>
        <time>2024-05-05T16:49:30Z</time>
      </trkpt>
      <trkpt lat="48.40381" lon="2.70052">
        <ele>81</ele>
        <time>2024-05-05T16:49:49Z</time>
      </trkpt>
      <trkpt lat="48.40378" lon="2.70077">
        <ele>81</ele>
        <time>2024-05-05T16:50:11Z</time>
      </trkpt>
      <trkpt lat="48.40363" lon="2.70131">
        <ele>79</ele>
        <time>2024-05-05T16:51:03Z</time>
      </trkpt>
      <trkpt lat="48.40366" lon="2.70151">
        <ele>79</ele>
        <time>2024-05-05T16:51:21Z</time>
      </trkpt>
      <trkpt lat="48.40372" lon="2.70161">
        <ele>79</ele>
        <time>2024-05-05T16:51:33Z</time>
      </trkpt>
      <trkpt lat="48.40381" lon="2.70167">
        <ele>79</ele>
        <time>2024-05-05T16:51:46Z</time>
      </trkpt>
      <trkpt lat="48.40395" lon="2.70169">
        <ele>80</ele>
        <time>2024-05-05T16:52:05Z</time>
      </trkpt>
      <trkpt lat="48.40413" lon="2.70187">
        <ele>80</ele>
        <time>2024-05-05T16:52:34Z</time>
      </trkpt>
      <trkpt lat="48.40438" lon="2.702">
        <ele>80</ele>
        <time>2024-05-05T16:53:09Z</time>
      </trkpt>
      <trkpt lat="48.40446" lon="2.70209">
        <ele>80</ele>
        <time>2024-05-05T16:53:23Z</time>
      </trkpt>
      <trkpt lat="48.40472" lon="2.7022">
        <ele>80</ele>
        <time>2024-05-05T16:53:59Z</time>
      </trkpt>
      <trkpt lat="48.40487" lon="2.70216">
        <ele>81</ele>
        <time>2024-05-05T16:54:19Z</time>
      </trkpt>
      <trkpt lat="48.40509" lon="2.70239">
        <ele>81</ele>
        <time>2024-05-05T16:54:55Z</time>
      </trkpt>
      <trkpt lat="48.40521" lon="2.70245">
        <ele>81</ele>
        <time>2024-05-05T16:55:12Z</time>
      </trkpt>
      <trkpt lat="48.40505" lon="2.70233">
        <ele>81</ele>
        <time>2024-05-05T16:55:35Z</time>
      </trkpt>
      <trkpt lat="48.4049" lon="2.70229">
        <ele>80</ele>
        <time>2024-05-05T16:55:56Z</time>
      </trkpt>
      <trkpt lat="48.40483" lon="2.7022">
        <ele>81</ele>
        <time>2024-05-05T16:56:08Z</time>
      </trkpt>
      <trkpt lat="48.40467" lon="2.70216">
        <ele>80</ele>
        <time>2024-05-05T16:56:30Z</time>
      </trkpt>
      <trkpt lat="48.40457" lon="2.70204">
        <ele>80</ele>
        <time>2024-05-05T16:56:47Z</time>
      </trkpt>
      <trkpt lat="48.40421" lon="2.70184">
        <ele>80</ele>
        <time>2024-05-05T16:57:38Z</time>
      </trkpt>
      <trkpt lat="48.40398" lon="2.70164">
        <ele>80</ele>
        <time>2024-05-05T16:58:13Z</time>
      </trkpt>
      <trkpt lat="48.40383" lon="2.70167">
        <ele>79</ele>
        <time>2024-05-05T16:58:34Z</time>
      </trkpt>
      <trkpt lat="48.40376" lon="2.70187">
        <ele>78</ele>
        <time>2024-05-05T16:58:54Z</time>
      </trkpt>
      <trkpt lat="48.40364" lon="2.7026">
        <ele>76</ele>
        <time>2024-05-05T17:00:00Z</time>
      </trkpt>
      <trkpt lat="48.40393" lon="2.70318">
        <ele>76</ele>
        <time>2024-05-05T17:01:05Z</time>
      </trkpt>
      <trkpt lat="48.40409" lon="2.70329">
        <ele>76</ele>
        <time>2024-05-05T17:01:28Z</time>
      </trkpt>
      <trkpt lat="48.40423" lon="2.70367">
        <ele>76</ele>
        <time>2024-05-05T17:02:07Z</time>
      </trkpt>
    </trkseg>
  </trk>
</gpx>